[{"header": {"dx": 0.06612293990616946, "dy": 0.0552356325346848, "nx": 98, "ny": 59, "la1": 35.046912555036876, "la2": 31.78801023549047, "lo1": -121.43107172385933, "lo2": -114.95102361305473, "refTime": "2026041119", "parameterCategory": 1, "parameterNumber": 2}, "data": [1.86, 1.86, 2.23, 2.15, 2.5, 2.68, 3.32, 3.39, 3.87, 4.34, 4.6, 5.51, 7.85, 7.85, 7.42, 6.94, 6.36, 4.98, 5.6, 4.84, 4.84, 4.84, 4.98, 5.51, 5.73, 5.36, 4.47, 2.97, 0.0, -1.6, -2.23, -1.08, 0.0, 0.0, 0.0, 1.08, 1.19, 2.2, 2.95, 2.48, 2.68, 1.6, 1.84, 1.4, 1.58, 1.75, 1.84, 1.75, 1.75, 1.75, 1.84, 1.96, 1.72, 1.84, 1.99, 2.95, 3.48, 3.16, 2.48, 2.21, 1.9, -0.0, -0.79, -3.19, -4.93, -4.06, -0.82, 3.16, 8.01, 10.24, 10.28, 8.3, 4.98, -0.0, -0.0, -0.0, -0.0, -0.77, -0.85, -1.69, -1.69, -2.71, -2.71, -2.71, -1.76, -1.47, -2.47, -2.71, -2.49, -2.6, -1.7, -0.86, -0.0, 0.83, 0.83, 0.83, -0.0, -0.0, 1.26, 1.86, 1.86, 2.23, 2.15, 2.68, 3.2, 3.6, 4.11, 4.6, 4.8, 6.6, 7.2, 7.63, 8.06, 7.06, 5.51, 5.6, 5.01, 4.54, 4.74, 5.36, 5.6, 6.07, 5.29, 5.36, 5.29, 4.34, 1.4, -1.13, -1.27, -1.08, 0.0, 0.0, 0.0, 0.0, 0.0, 0.0, 0.96, 1.4, 1.6, -0.0, -0.0, -0.0, 0.89, 1.75, 1.75, 1.75, 1.84, 2.67, 2.67, 2.82, 2.64, 2.6, 3.35, 4.11, 4.11, 3.79, 3.93, 3.58, 2.53, 0.8, -0.0, -2.49, -5.2, -4.3, -1.6, 3.15, 8.31, 10.9, 11.83, 11.09, 7.85, 2.23, -0.0, -0.0, -0.85, -0.77, -0.85, -1.69, -1.69, -2.71, -2.71, -2.71, -1.76, -1.47, -2.47, -2.71, -2.49, -2.6, -1.7, -0.86, -0.0, 0.83, 0.83, 0.83, -0.0, -0.0, 1.6, 1.86, 1.86, 1.9, 2.15, 2.5, 3.07, 3.35, 3.72, 4.27, 4.55, 5.21, 7.2, 7.2, 7.21, 6.94, 6.02, 5.2, 4.89, 5.06, 4.43, 5.36, 5.36, 5.36, 6.23, 5.36, 4.85, 4.57, 2.84, 0.0, 0.0, 0.0, 0.0, 0.0, 0.0, 0.0, -1.08, 0.0, 0.0, -0.0, -0.0, -0.0, -0.0, 0.94, 0.89, 1.73, 1.84, 2.67, 2.67, 2.67, 3.77, 2.82, 3.0, 3.91, 3.63, 4.11, 4.54, 4.54, 4.6, 3.93, 1.6, 0.85, -0.0, -0.82, -3.51, -4.07, -1.67, 2.4, 8.03, 11.02, 11.75, 12.3, 10.14, 4.29, -0.94, -1.62, -1.63, -1.69, -1.45, -1.7, -1.7, -2.6, -3.25, -2.71, -1.54, -1.6, -2.35, -3.36, -3.39, -2.6, -1.76, -0.0, -0.0, 0.86, 1.7, 0.86, -0.0, -0.0, 1.26, 1.86, 1.86, 1.9, 1.9, 2.21, 2.53, 2.84, 3.16, 3.48, 4.07, 4.65, 7.2, 6.94, 7.12, 6.57, 5.2, 4.54, 4.43, 4.29, 3.91, 4.74, 5.06, 5.15, 6.18, 6.0, 4.02, 3.6, 2.84, 1.98, 2.4, 2.97, 3.35, 4.0, 2.68, 2.24, 0.0, 0.0, -1.4, -0.84, -0.85, -0.0, 0.89, 0.94, 1.73, 1.73, 2.67, 2.83, 3.4, 3.77, 4.16, 3.72, 4.19, 4.43, 4.43, 4.89, 4.89, 4.89, 4.54, 2.95, 1.72, 0.89, 0.82, -0.0, -0.85, -2.7, -1.67, 1.49, 6.64, 10.4, 11.09, 11.18, 10.25, 4.8, -0.84, -2.51, -2.53, -1.71, -1.64, -1.71, -2.28, -3.29, -3.39, -3.51, -1.76, -1.76, -2.71, -3.39, -3.39, -2.6, -1.69, -0.0, -0.0, 0.82, 1.63, 0.82, -0.0, -0.0, 0.8, 1.58, 1.58, 1.9, 1.61, 1.88, 2.23, 2.51, 2.86, 3.15, 3.49, 4.37, 6.8, 6.99, 6.57, 5.21, 4.11, 4.43, 3.47, 3.72, 2.66, 4.29, 4.29, 4.56, 4.58, 4.56, 3.22, 4.0, 3.58, 2.4, 2.2, 2.8, 3.55, 3.72, 3.0, 1.63, 1.52, -0.0, -0.89, -0.85, -0.0, 0.89, 1.67, 1.75, 1.84, 2.67, 2.83, 3.6, 4.26, 4.68, 4.87, 4.58, 4.74, 4.74, 4.74, 5.58, 5.58, 5.58, 3.91, 2.76, 0.95, 0.81, 0.82, 0.82, -0.0, -0.81, -0.85, 1.67, 5.76, 9.05, 10.32, 10.45, 9.83, 6.65, -0.0, -3.76, -3.23, -1.65, -1.65, -1.54, -2.28, -2.61, -3.39, -3.51, -3.51, -3.39, -3.53, -3.53, -3.39, -1.69, -0.85, -0.0, -0.0, 0.82, 1.7, 0.86, -0.0, -0.0, 0.6, 1.26, 1.24, 1.49, 1.61, 1.88, 1.84, 1.8, 2.23, 2.22, 2.84, 4.12, 6.18, 6.4, 5.37, 3.63, 3.47, 2.8, 3.0, 2.64, 3.0, 2.64, 2.66, 2.66, 2.66, 2.66, 1.4, 1.4, 1.73, 1.49, 0.95, 1.96, 2.64, 2.64, 1.73, 1.65, 2.54, 1.84, -0.0, -0.89, -0.0, 1.18, 1.62, 2.47, 2.57, 2.57, 3.45, 4.5, 5.1, 5.24, 5.37, 5.06, 5.49, 5.49, 5.95, 6.21, 6.21, 5.49, 4.19, 2.8, 0.89, 0.85, 0.86, 0.83, 0.86, 0.82, -0.0, 1.67, 5.21, 7.68, 9.77, 9.49, 9.83, 8.05, 1.84, -3.32, -3.34, -2.45, -0.86, -1.71, -1.71, -2.61, -3.53, -4.44, -4.13, -4.3, -3.39, -3.39, -2.71, -1.69, -0.82, -0.0, 0.86, 1.63, 1.7, 0.8, -0.0, 0.83, -0.0, 0.8, 0.71, 1.24, 1.2, 1.4, 1.16, 1.6, 1.8, 1.76, 2.36, 3.45, 5.37, 4.54, 3.47, 1.84, 2.12, 2.12, 1.84, 1.63, 2.47, 2.8, 1.72, 1.84, 1.4, 1.32, 1.32, 1.4, 2.99, 3.0, 1.4, 0.89, 0.89, 0.89, 1.55, 1.65, 2.54, 2.97, 1.47, -0.0, -0.0, -0.0, 1.33, 2.6, 3.77, 3.49, 4.2, 4.34, 4.5, 5.59, 6.01, 5.37, 5.37, 5.49, 6.21, 6.6, 6.21, 4.74, 3.91, 2.8, 0.84, 0.82, 0.83, 0.83, 1.71, 1.69, 1.75, 2.69, 4.96, 8.12, 9.36, 9.97, 10.28, 9.39, 3.77, -0.86, -2.47, -1.65, -0.86, -0.83, -1.71, -2.61, -3.39, -4.25, -4.4, -3.88, -3.65, -3.36, -2.59, -1.69, -0.73, -0.0, 1.7, 1.7, 1.7, 0.83, 0.83, 0.83, -0.0, -0.0, 0.57, 0.71, 0.54, 0.65, 0.61, 1.13, 1.27, 1.76, 1.7, 2.16, 3.0, 2.12, 1.4, 0.82, 1.72, 1.84, 1.63, 1.96, 1.98, 1.7, 0.96, -0.0, 0.89, 1.63, 1.32, 2.66, 4.56, 2.8, -0.0, -0.0, -0.0, -0.0, 1.73, 2.51, 2.51, 1.73, 2.97, 1.39, -0.0, -0.0, 1.47, 2.83, 2.83, 4.05, 4.2, 5.21, 5.21, 6.01, 5.37, 5.69, 5.69, 6.11, 6.55, 6.55, 5.49, 4.43, 2.99, 2.64, 1.67, 0.82, -0.0, 0.8, 1.71, 2.6, 3.49, 4.26, 6.01, 7.81, 9.75, 10.6, 11.18, 11.18, 7.2, 1.45, -0.81, -0.81, -0.83, -0.0, -0.0, -1.5, -3.21, -3.8, -3.91, -3.27, -2.99, -2.7, -1.76, -0.85, -0.0, -0.0, 1.64, 1.71, 1.64, 0.83, 0.86, 1.71, -0.0, -0.0, -0.0, -0.0, -0.0, -0.0, -0.0, 0.61, 0.59, 1.11, 1.08, 0.61, -0.0, 1.01, 1.96, 0.95, -0.0, 0.89, 0.89, 1.01, 1.49, 1.4, -0.0, -0.0, 0.96, 1.52, 1.63, 1.73, 3.2, 1.41, -0.0, -0.0, -0.0, 1.32, 2.8, 2.8, 1.73, 1.4, 2.83, 2.83, 1.33, 2.83, 1.32, 1.4, 1.49, 1.84, 3.7, 5.32, 5.9, 6.04, 5.46, 4.5, 5.1, 5.36, 5.89, 5.53, 4.68, 3.72, 2.8, 1.84, 0.82, 0.83, 0.8, 0.83, 2.51, 3.39, 5.06, 6.32, 7.82, 8.56, 10.14, 10.26, 12.07, 12.07, 9.72, 3.65, -0.0, -0.0, -0.0, 1.44, 1.63, -0.0, -1.58, -3.09, -2.35, -2.35, -1.65, -1.67, -0.74, -0.0, -0.0, -0.0, 0.73, 1.71, 1.65, 0.83, 0.8, 1.6, -0.0, -0.0, -0.0, -0.0, -0.0, -0.0, -0.0, -0.0, -0.0, 0.59, 0.66, 0.57, 0.57, 1.23, 1.98, 1.03, -0.0, -0.0, -0.0, 1.49, 1.49, 1.49, 1.49, 1.49, 1.32, 1.63, 1.63, 1.73, 1.63, 1.52, -0.0, -0.0, 1.32, 2.49, 4.29, 2.8, 1.52, 1.84, 2.69, 4.2, 3.6, 3.6, 2.51, 1.72, 0.82, 1.73, 2.67, 4.5, 5.21, 5.06, 4.4, 4.07, 4.2, 4.2, 4.56, 4.34, 4.5, 3.4, 1.73, 0.89, 0.8, 0.8, 1.17, 1.7, 2.6, 4.25, 5.9, 7.33, 8.82, 9.35, 9.39, 9.83, 11.15, 11.99, 10.28, 4.46, -0.0, -0.0, 1.46, 2.93, 3.07, 3.11, -0.0, -1.63, -0.82, -0.82, -0.0, -0.0, -0.0, -0.0, -0.0, -0.0, -0.0, 0.86, 1.71, 1.65, 1.65, 1.71, -0.0, -0.0, -0.0, -0.0, -0.0, -0.0, -0.61, -0.61, -0.0, -0.0, 0.61, 0.59, 1.13, 1.13, 1.05, 0.88, -0.0, 0.59, 1.84, 2.51, 2.99, 2.99, 2.99, 3.63, 3.0, 1.52, 1.52, -0.0, 1.63, 1.52, 3.47, 2.16, 3.22, 3.72, 3.72, 3.91, 2.4, 2.69, 4.42, 5.24, 4.68, 3.77, 2.64, 1.32, 1.32, 1.84, 2.82, 3.4, 3.4, 2.69, 2.49, 3.39, 3.25, 3.25, 3.36, 3.51, 3.36, 2.69, 0.89, -0.0, 0.8, 1.65, 2.44, 3.39, 4.07, 5.14, 6.7, 7.35, 7.76, 7.85, 8.05, 8.36, 9.58, 10.49, 9.36, 4.03, -0.0, -0.0, 2.53, 4.17, 4.4, 3.69, 2.35, -0.0, -0.0, -0.0, -0.0, 0.8, -0.0, -0.0, -0.0, -0.0, -0.0, 0.8, 0.83, 1.65, 1.6, 1.64, -0.0, -0.0, -0.0, -0.0, -0.0, -0.0, -0.61, -0.61, -0.53, -0.0, -0.0, -0.0, 0.61, 1.16, 1.33, 1.33, 1.84, 1.61, 1.88, 2.53, 3.14, 3.72, 4.27, 5.72, 4.02, 3.0, 2.8, 1.84, 3.22, 3.22, 4.74, 4.74, 5.06, 4.29, 3.72, 3.55, 4.03, 4.95, 5.37, 5.37, 4.87, 3.72, 1.98, 1.32, 1.32, 0.95, 1.32, 1.47, 1.47, 1.39, 1.76, 2.59, 1.69, 1.7, 1.7, 2.44, 4.06, 3.49, 0.85, -0.0, 0.8, 2.53, 3.29, 3.49, 3.88, 4.93, 5.55, 4.93, 4.56, 3.55, 4.84, 6.65, 7.42, 8.72, 7.1, 2.69, -0.0, 1.7, 3.11, 4.4, 5.14, 4.13, 3.39, 1.75, 1.63, 0.83, 0.79, 0.74, 0.75, -0.0, -0.0, -0.0, -0.0, -0.0, 0.83, 0.83, 1.64, 1.7, 0.6, -0.0, -0.0, -0.0, -0.0, -0.0, -0.0, -0.0, -0.61, -0.61, -0.53, -0.0, -0.0, 0.61, 1.16, 1.61, 1.61, 1.61, 1.88, 2.21, 3.07, 3.6, 4.11, 4.52, 4.4, 4.55, 4.27, 4.11, 3.6, 3.39, 4.98, 5.49, 5.49, 4.58, 4.58, 4.58, 4.95, 5.24, 5.37, 5.49, 4.29, 2.8, 1.84, 0.81, -0.0, -0.0, -0.0, -0.0, -0.0, -0.0, 1.55, 1.55, -0.0, -0.0, -0.0, 1.16, 4.65, 6.08, 1.75, -0.0, 0.8, 3.42, 4.13, 3.27, 1.56, 3.28, 4.47, 4.06, 3.22, 3.25, 3.39, 4.29, 3.48, 4.11, 4.4, 1.76, 1.64, 3.25, 4.5, 4.6, 3.88, 3.51, 3.02, 2.51, 2.49, 2.59, 1.68, 0.78, 0.75, 0.73, -0.0, -0.0, -0.0, -0.0, -0.0, 0.86, 1.7, 1.63, 1.2, 0.6, -0.0, -0.0, -0.0, -0.0, -0.0, -0.0, -0.0, -0.51, -0.61, -0.61, -0.0, -0.0, 0.61, 1.16, 1.61, 1.61, 1.84, 2.53, 3.07, 3.2, 3.6, 3.7, 4.11, 4.6, 4.34, 3.87, 3.53, 3.07, 3.39, 4.89, 5.69, 4.74, 4.58, 4.16, 4.56, 5.53, 5.77, 5.15, 3.63, 2.76, 2.6, 1.23, -0.0, -0.0, -0.0, -0.0, -0.0, 1.32, 1.32, -0.0, -1.1, -1.32, -0.0, 0.78, 3.8, 5.64, 3.68, -0.0, 0.8, 3.47, 3.39, 2.28, -0.0, 0.81, 2.25, 2.96, 5.37, 6.47, 6.47, 3.51, 1.08, 1.27, 1.75, 2.51, 4.3, 4.92, 5.06, 4.4, 3.65, 3.49, 2.28, 2.21, 2.88, 3.32, 3.42, 2.6, 1.56, 1.5, 0.72, -0.0, -0.0, -0.0, -0.0, 0.82, 1.69, 1.69, 1.7, 1.6, 0.8, 0.57, -0.0, -0.0, -0.0, -0.0, -0.0, -0.0, -0.0, -0.0, -0.0, -0.0, 0.61, 0.61, 1.16, 1.84, 2.23, 3.07, 3.39, 3.39, 3.39, 3.6, 4.11, 4.34, 4.43, 3.58, 2.68, 2.17, 2.5, 2.86, 5.69, 5.69, 5.03, 3.8, 5.21, 5.53, 6.63, 4.54, 2.76, 2.49, 1.32, 1.49, 1.25, -0.0, -0.0, 1.18, 1.1, 1.32, 1.32, -0.0, -0.0, -0.0, -0.0, -0.0, 2.4, 3.51, 3.69, 2.52, 1.62, 2.49, 2.28, -0.0, -0.0, -0.0, 1.15, 3.41, 5.86, 6.9, 6.54, 6.35, 5.25, 4.13, 4.87, 4.87, 6.0, 5.9, 5.46, 4.4, 3.49, 3.63, 2.44, 1.47, 1.56, 3.23, 4.1, 4.21, 3.07, 1.63, 0.85, -0.0, -0.0, -0.0, -0.0, 1.69, 1.69, 1.69, 1.79, 1.7, 1.6, 1.26, 0.99, 0.71, 0.54, -0.0, -0.0, -0.0, -0.0, -0.0, -0.0, -0.0, -0.0, 0.61, 0.61, 1.84, 2.23, 3.2, 3.39, 2.91, 3.07, 3.72, 4.6, 4.44, 3.58, 2.68, 1.79, 1.86, 1.8, 3.08, 3.84, 5.69, 4.14, 4.26, 5.1, 5.24, 5.69, 4.29, 1.98, 1.73, 2.54, 1.4, 1.4, 1.4, 1.32, 1.25, 1.4, 1.32, 1.32, 1.52, 1.3, 1.6, -0.0, -0.0, -0.0, 1.32, 2.33, 3.7, 3.27, 2.54, 1.1, -0.0, -1.16, -0.0, 2.31, 4.8, 5.69, 4.72, 4.76, 7.4, 9.54, 8.99, 8.31, 8.45, 8.42, 7.13, 6.04, 4.4, 3.32, 3.45, 2.69, 2.47, 2.59, 2.71, 4.33, 4.93, 4.06, 3.19, 1.7, -0.0, 0.73, 0.73, 0.75, 1.5, 2.21, 2.21, 1.79, 1.79, 2.12, 2.12, 1.86, 1.86, 1.24, 0.65, 0.53, -0.0, -0.0, -0.0, -0.0, -0.0, 0.59, 0.51, 0.59, 1.27, 2.84, 3.39, 3.13, 2.4, 2.23, 4.07, 4.6, 3.58, 2.24, 1.79, 1.7, 1.6, 2.36, 3.0, 3.45, 5.31, 4.03, 4.26, 4.26, 4.14, 2.82, 2.82, 2.54, 1.65, 2.46, 1.84, 2.46, 2.46, 2.83, 2.54, 2.82, 3.0, 1.52, 2.8, 2.8, 3.22, 2.73, 1.55, 1.55, 1.55, 3.47, 5.37, 5.69, 4.02, 2.4, -0.0, -2.4, -0.8, 1.11, 3.45, 3.53, 2.24, 4.74, 8.94, 12.5, 12.5, 11.79, 11.47, 10.92, 8.22, 5.76, 4.44, 3.65, 2.7, 2.59, 3.02, 3.29, 3.39, 3.51, 4.06, 3.44, 3.32, 2.25, 0.75, 0.73, 1.42, 1.76, 2.21, 2.21, 2.21, 1.79, 2.24, 2.24, 2.17, 2.0, 2.23, 1.9, 1.9, 1.2, 0.61, 0.51, -0.0, -0.0, -0.0, 0.57, 0.59, -0.0, 1.19, 2.86, 3.39, 1.79, 0.65, 1.73, 3.78, 3.43, 2.12, 0.6, 1.24, 1.84, 1.7, 3.0, 3.45, 4.12, 4.12, 4.12, 4.42, 3.55, 2.82, 3.91, 2.99, 2.69, 2.83, 2.69, 2.69, 4.0, 4.0, 4.96, 5.31, 4.56, 4.02, 2.8, 2.6, 2.8, 3.76, 2.8, 3.22, 2.98, 2.73, 4.11, 5.36, 5.72, 5.36, 2.6, -0.0, -1.25, -0.79, -0.0, -0.0, 2.23, 3.39, 6.97, 11.28, 13.87, 14.46, 13.87, 13.27, 11.25, 8.45, 5.86, 4.21, 3.29, 3.39, 3.42, 3.6, 3.32, 3.32, 3.32, 3.32, 3.23, 4.1, 3.32, 1.7, 0.76, 2.19, 3.29, 3.25, 3.11, 3.11, 2.24, 2.24, 2.24, 2.17, 2.6, 2.4, 2.15, 2.15, 1.9, 1.61, 1.16, 0.51, 0.59, 0.57, 0.57, -0.0, -0.0, 1.19, 2.86, 2.68, 0.6, -0.0, 0.58, 2.82, 2.8, 1.63, 1.11, 2.64, 2.82, 2.8, 3.45, 3.47, 3.84, 3.84, 3.84, 3.76, 3.49, 3.49, 4.74, 5.69, 4.42, 4.68, 4.37, 3.8, 4.96, 5.59, 5.31, 5.69, 5.37, 4.02, 3.76, 2.8, 4.02, 4.29, 3.91, 3.68, 3.0, 3.0, 4.29, 5.72, 5.36, 5.01, 3.76, 0.89, -0.0, -0.0, -0.0, -0.0, 1.55, 3.4, 8.0, 12.56, 16.03, 16.76, 15.13, 12.3, 8.73, 6.0, 5.79, 4.87, 3.32, 3.32, 3.44, 3.6, 4.21, 3.44, 4.06, 3.91, 3.32, 3.6, 4.1, 3.44, 2.44, 2.88, 4.17, 4.3, 4.13, 4.13, 2.24, 2.24, 2.68, 2.6, 2.4, 2.4, 2.5, 2.5, 2.5, 2.21, 1.88, 1.16, 1.16, 0.59, -0.0, -0.0, -0.0, -0.0, 1.72, 1.84, 0.88, -0.0, 0.59, 1.84, 2.64, 3.55, 3.55, 3.04, 3.47, 3.47, 3.76, 3.49, 3.49, 3.49, 3.49, 4.12, 3.83, 4.11, 4.11, 4.37, 4.74, 4.74, 4.74, 4.74, 4.45, 6.98, 6.63, 6.28, 6.08, 4.02, 3.0, 2.66, 2.82, 2.54, 3.4, 3.6, 4.0, 3.79, 4.58, 6.08, 5.36, 4.02, 2.66, 1.32, -0.0, -0.0, 0.84, 1.55, 3.55, 5.82, 9.06, 13.18, 16.47, 16.99, 13.86, 9.39, 4.87, 3.29, 4.93, 4.21, 4.1, 4.1, 3.44, 3.32, 4.17, 3.76, 4.5, 4.5, 3.76, 3.76, 3.32, 4.21, 3.19, 4.17, 4.4, 5.2, 5.0, 5.0, 2.68, 2.68, 2.68, 2.63, 2.91, 2.91, 2.5, 2.5, 2.5, 2.5, 2.5, 2.21, 1.88, 1.16, 1.16, -0.0, -0.51, -0.57, -0.0, 0.89, 0.95, 0.54, 0.55, 1.11, 1.76, 2.44, 3.12, 3.49, 3.49, 3.49, 3.49, 3.49, 3.49, 3.49, 3.49, 3.49, 3.83, 3.83, 4.11, 4.43, 4.43, 4.43, 4.74, 4.74, 4.12, 6.01, 6.28, 6.9, 6.08, 4.29, 2.66, 2.82, 2.99, 2.54, 3.8, 3.45, 4.56, 4.71, 5.31, 4.29, 4.29, 3.91, 2.69, 1.26, 1.67, 1.58, 1.67, 2.57, 4.83, 6.73, 9.42, 13.01, 13.32, 10.25, 5.6, 3.13, 2.23, 2.69, 2.57, 3.42, 4.13, 4.04, 4.13, 3.73, 4.06, 4.17, 5.0, 4.5, 4.5, 3.02, 3.29, 4.33, 5.06, 4.5, 5.09, 5.09, 4.6, 4.6, 3.13, 3.13, 3.07, 3.07, 2.91, 2.91, 2.68, 3.07, 3.07, 3.07, 3.07, 3.07, 2.21, 2.53, 2.21, 1.16, -0.0, -1.13, -1.13, -0.59, -0.0, 0.57, 0.59, 0.66, 1.27, 1.76, 2.44, 2.86, 2.84, 3.08, 3.49, 3.49, 3.49, 3.49, 3.49, 3.49, 3.78, 3.83, 3.83, 4.12, 4.12, 4.12, 4.43, 4.43, 4.12, 4.43, 7.28, 6.52, 5.06, 2.82, 2.99, 2.54, 2.99, 2.99, 2.99, 2.69, 4.2, 5.06, 4.96, 3.91, 2.82, 2.67, 1.84, 1.75, 1.68, 1.68, 1.68, 2.59, 4.13, 5.86, 7.19, 9.06, 7.51, 3.63, -0.0, 2.4, 2.26, 0.81, -0.0, 0.74, 2.47, 3.75, 4.95, 4.81, 5.02, 4.98, 5.11, 4.93, 4.48, 3.69, 3.61, 4.4, 5.3, 5.41, 5.18, 5.18, 5.14, 5.14, 3.58, 3.58, 3.13, 3.07, 2.91, 2.91, 3.07, 3.07, 3.07, 3.07, 3.07, 3.07, 3.07, 3.07, 3.07, 2.79, 1.16, -0.0, -0.61, -0.61, -0.0, -0.0, -0.0, -0.0, 0.57, 1.23, 1.73, 2.4, 2.4, 2.82, 3.08, 3.49, 3.49, 3.49, 3.49, 3.49, 3.49, 3.78, 3.49, 3.83, 4.12, 4.12, 4.42, 4.12, 4.12, 4.43, 6.28, 5.37, 4.56, 2.99, 2.54, 3.8, 4.14, 2.82, 2.82, 2.54, 2.69, 3.49, 4.88, 3.77, 2.67, 1.75, 1.68, 1.76, 2.39, 2.6, 2.6, 2.59, 3.25, 4.13, 4.72, 4.65, 12.26, 9.1, 6.32, 4.46, 2.4, -0.0, -1.13, -0.76, -0.0, 1.62, 3.3, 4.95, 5.79, 5.62, 5.73, 5.86, 6.31, 5.93, 3.69, 5.41, 5.95, 6.05, 5.52, 4.96, 4.71, 4.71, 3.53, 3.53, 3.58, 3.53, 3.39, 3.2, 3.07, 3.07, 3.07, 3.07, 3.07, 3.07, 3.07, 3.2, 3.6, 3.7, 3.35, 1.88, -0.0, -0.0, -0.0, -0.0, -0.0, -0.0, -0.0, 0.55, 1.19, 1.7, 1.7, 2.36, 2.82, 2.82, 3.47, 3.76, 3.49, 3.49, 3.49, 3.49, 3.49, 3.78, 3.49, 4.12, 4.12, 4.12, 4.43, 4.11, 5.69, 5.69, 5.31, 4.37, 4.37, 5.03, 4.14, 3.91, 2.99, 2.4, 1.63, 1.65, 4.2, 4.2, 1.75, 1.67, 1.75, 2.47, 2.39, 2.6, 2.6, 3.53, 3.36, 4.2, 3.45, 10.79, 16.06, 14.88, 10.23, 6.01, 3.22, 3.13, -0.0, -1.63, -0.76, -0.0, 2.13, 4.24, 5.86, 5.67, 6.0, 6.65, 7.49, 8.45, 6.0, 5.78, 6.14, 5.86, 5.04, 4.5, 4.5, 4.5, 3.98, 3.98, 4.02, 3.98, 3.87, 3.82, 3.6, 3.6, 3.07, 3.07, 3.07, 3.2, 3.2, 3.6, 3.6, 4.3, 4.6, 3.7, 2.21, 0.59, -0.0, -0.0, 0.61, 0.61, 0.61, 0.54, 1.07, 1.16, 1.7, 1.7, 2.36, 2.82, 2.82, 3.22, 3.49, 3.49, 3.49, 3.22, 3.49, 3.49, 3.49, 3.78, 3.83, 4.12, 4.43, 4.37, 4.65, 4.65, 4.71, 4.65, 4.07, 5.37, 4.56, 2.82, 2.54, 2.99, 1.4, 0.89, 1.18, 2.54, 2.83, 1.84, 1.75, 2.57, 2.47, 2.59, 3.25, 4.25, 4.4, 4.42, 4.95, 8.42, 15.23, 14.82, 11.14, 6.04, 2.23, 1.79, -0.0, -0.94, -1.45, -0.0, 2.14, 4.48, 5.93, 6.56, 6.56, 6.79, 7.63, 7.93, 8.95, 6.51, 5.86, 5.21, 4.6, 3.8, 4.12, 4.12, 4.44, 4.44, 4.02, 3.98, 3.87, 3.87, 3.7, 3.6, 3.6, 3.6, 3.6, 3.6, 3.6, 3.6, 3.87, 4.3, 4.77, 5.24, 4.19, 2.84, 1.08, 0.59, 1.16, 1.16, 1.16, 1.16, 1.16, 1.16, 1.16, 1.7, 1.7, 2.36, 2.82, 2.82, 3.49, 3.49, 3.49, 3.49, 3.49, 3.49, 3.49, 3.49, 4.11, 4.43, 4.71, 4.71, 4.65, 4.65, 4.55, 4.27, 3.88, 3.43, 4.29, 2.54, 2.69, 2.69, 2.82, -0.0, -0.0, 1.4, 3.91, 2.99, 1.96, 1.75, 1.67, 2.47, 3.36, 4.25, 5.21, 5.1, 4.83, 7.9, 11.6, 14.7, 13.91, 8.95, 3.47, -0.0, -0.0, -0.0, -0.85, -0.0, 1.52, 3.61, 5.2, 6.79, 6.79, 7.38, 7.38, 7.54, 8.45, 7.44, 5.38, 3.8, 3.8, 3.45, 3.09, 3.09, 4.88, 4.88, 4.47, 4.47, 4.44, 4.3, 4.11, 4.11, 3.88, 3.6, 3.6, 3.6, 3.6, 3.6, 3.87, 4.3, 4.77, 5.24, 5.24, 4.4, 2.22, 1.07, 1.16, 1.16, 1.16, 1.7, 1.7, 1.7, 1.7, 1.7, 1.7, 1.73, 1.7, 2.36, 2.36, 2.82, 3.08, 3.49, 3.49, 3.49, 3.49, 3.49, 3.49, 4.11, 4.37, 4.37, 4.65, 4.55, 3.88, 3.6, 3.14, 2.86, 2.44, 2.18, 2.82, 3.55, 2.82, 1.32, 0.82, 1.84, 3.68, 3.33, 2.82, 1.65, 2.46, 2.69, 4.0, 5.21, 5.76, 4.96, 5.1, 5.89, 8.53, 11.29, 13.81, 12.42, 8.42, 3.9, 1.73, 0.85, -0.0, 0.79, 2.21, 3.61, 5.18, 6.53, 7.49, 8.05, 7.38, 7.12, 7.36, 7.63, 6.0, 3.49, 3.15, 2.4, 2.26, 2.26, 4.89, 4.89, 4.92, 4.92, 4.88, 4.34, 4.6, 4.6, 4.52, 4.11, 3.6, 3.6, 3.7, 4.11, 4.3, 4.34, 4.77, 5.24, 5.7, 5.24, 3.43, 1.76, 1.19, 1.16, 1.16, 1.7, 1.7, 1.7, 2.4, 2.44, 1.76, 1.08, 1.07, 1.7, 2.36, 2.82, 3.08, 3.08, 3.49, 3.78, 3.49, 3.49, 3.49, 3.49, 3.79, 4.65, 4.8, 4.6, 3.6, 2.53, 2.48, 2.84, 2.82, 2.82, 2.4, 3.0, 3.2, 2.66, 1.72, 1.98, 3.47, 3.33, 1.84, 1.84, 2.67, 4.0, 5.36, 5.1, 5.1, 5.36, 5.1, 5.24, 6.53, 9.17, 11.79, 13.74, 13.12, 9.06, 5.29, 2.71, 2.49, 2.3, 2.89, 3.8, 4.6, 6.05, 6.87, 7.38, 6.79, 6.7, 6.7, 6.84, 5.86, 3.61, 2.23, 1.58, 1.65, 1.65, 5.24, 5.24, 5.36, 4.92, 4.89, 4.77, 4.6, 4.6, 4.6, 4.6, 4.11, 4.11, 4.11, 4.11, 4.3, 4.77, 4.77, 5.24, 5.7, 5.7, 5.09, 3.16, 1.57, 1.07, 1.16, 1.16, 1.7, 2.18, 2.84, 2.48, 1.8, 0.63, 1.07, 1.7, 1.7, 2.18, 2.84, 2.84, 3.22, 3.78, 3.78, 3.49, 3.12, 3.47, 4.58, 4.11, 4.0, 2.84, 1.73, 2.44, 2.82, 3.47, 3.47, 3.22, 3.12, 2.48, 3.0, 3.2, 1.98, 2.8, 3.47, 2.47, 1.63, 2.82, 3.4, 4.5, 5.21, 5.24, 4.58, 3.77, 4.03, 5.1, 6.98, 9.26, 11.26, 13.19, 13.26, 11.38, 8.18, 5.93, 5.0, 4.16, 4.24, 4.46, 6.14, 5.78, 5.18, 5.35, 6.0, 6.98, 6.98, 6.15, 4.4, 3.11, 1.47, 1.52, 1.58, 1.58, 5.7, 5.7, 5.78, 5.36, 5.33, 5.24, 5.24, 4.66, 4.6, 4.6, 4.6, 4.11, 4.11, 4.11, 4.19, 4.77, 4.8, 5.24, 5.26, 5.78, 5.7, 4.6, 4.4, 2.48, 1.55, 1.16, 1.7, 2.36, 3.12, 2.86, 1.27, 0.55, 0.54, 1.16, 1.7, 2.4, 2.4, 2.84, 2.84, 3.49, 3.78, 3.49, 3.49, 2.86, 3.12, 4.58, 4.74, 2.84, 3.04, 3.47, 4.12, 3.83, 4.12, 3.49, 3.49, 2.86, 2.51, 2.23, 2.99, 2.6, 2.8, 2.64, 2.64, 2.64, 3.4, 3.27, 4.2, 5.32, 2.99, 1.72, 1.72, 3.45, 7.12, 11.88, 12.79, 11.79, 10.43, 8.95, 9.12, 8.99, 7.63, 5.98, 5.34, 5.34, 5.98, 5.41, 3.88, 3.8, 5.59, 6.68, 6.32, 4.96, 2.35, 2.59, 1.54, 1.47, 1.6, 1.6, 6.16, 6.16, 5.78, 5.81, 5.36, 5.34, 5.24, 5.24, 5.09, 4.6, 4.6, 4.6, 4.11, 4.19, 4.6, 4.77, 5.24, 5.24, 5.26, 5.78, 5.78, 6.23, 5.7, 4.0, 2.44, 1.7, 1.7, 2.18, 2.86, 2.86, 1.76, 0.61, 1.07, 1.19, 1.73, 1.73, 2.2, 2.44, 2.86, 3.49, 3.49, 3.49, 3.49, 2.86, 2.86, 4.54, 5.49, 4.12, 4.12, 4.11, 4.11, 3.79, 4.07, 3.79, 3.48, 3.16, 2.51, 2.23, 2.23, 2.99, 2.8, 2.64, 3.33, 3.55, 3.4, 2.67, 2.54, 3.7, 3.52, 1.23, -0.0, 0.84, 4.6, 11.7, 15.12, 12.56, 8.79, 6.57, 8.18, 10.34, 9.43, 7.44, 5.72, 5.95, 6.33, 4.84, 3.37, 4.83, 5.43, 5.43, 4.65, 2.26, 0.77, 0.81, 1.54, 1.47, 2.28, 2.28, 6.47, 6.47, 6.16, 5.81, 5.81, 5.81, 5.34, 5.24, 5.24, 5.09, 4.6, 4.6, 4.6, 4.6, 4.77, 4.8, 5.24, 5.24, 5.7, 5.7, 5.7, 6.23, 6.23, 5.57, 3.78, 2.2, 1.7, 2.18, 3.72, 2.86, 2.4, 1.7, 1.19, 1.19, 1.73, 1.73, 1.94, 1.76, 2.44, 2.86, 3.49, 3.49, 3.49, 3.49, 3.48, 3.72, 4.37, 4.65, 4.65, 4.07, 4.07, 3.79, 3.48, 3.43, 3.16, 3.16, 2.51, 2.51, 2.23, 1.76, 2.8, 3.72, 3.33, 3.2, 3.4, 2.67, 1.73, 2.4, 5.03, 4.02, 0.88, -0.0, 2.33, 10.75, 16.12, 15.86, 10.37, 7.48, 8.93, 10.19, 9.56, 7.44, 6.62, 6.33, 6.31, 4.63, 3.6, 4.12, 5.84, 4.01, 2.6, 0.83, -0.0, -0.0, 1.6, 1.6, 2.17, 2.17, 6.47, 6.47, 6.16, 6.23, 6.26, 5.81, 5.78, 5.34, 5.24, 5.24, 5.09, 4.6, 4.6, 4.6, 4.77, 4.8, 5.24, 5.33, 5.7, 5.7, 6.14, 6.16, 6.23, 6.16, 5.09, 3.15, 1.73, 1.73, 2.4, 3.72, 2.84, 2.4, 1.73, 1.57, 1.57, 1.57, 1.76, 1.76, 1.8, 2.48, 3.15, 3.48, 3.48, 4.07, 4.37, 4.0, 4.27, 4.0, 3.73, 3.48, 3.48, 3.48, 3.78, 3.43, 3.16, 2.84, 2.51, 2.48, 2.48, 1.76, 2.2, 2.64, 4.14, 3.55, 3.4, 3.6, 2.67, 2.8, 5.36, 5.36, 2.76, 1.55, 3.33, 8.73, 15.5, 17.73, 13.51, 9.66, 9.3, 9.52, 8.3, 7.08, 6.87, 7.28, 5.92, 4.66, 4.36, 4.71, 5.49, 3.91, 2.16, -0.0, -0.83, -0.0, 0.84, 1.75, 1.52, 1.52, 6.94, 6.94, 6.61, 6.68, 6.26, 6.26, 5.81, 5.78, 5.26, 5.24, 5.24, 5.24, 4.8, 4.77, 4.8, 5.24, 5.33, 5.33, 5.78, 5.7, 6.16, 6.16, 6.16, 6.68, 6.16, 4.8, 2.86, 1.73, 2.2, 2.86, 2.84, 2.84, 2.2, 1.76, 1.76, 1.76, 1.76, 1.8, 1.8, 2.23, 2.84, 3.16, 3.43, 4.0, 4.0, 4.0, 4.0, 3.78, 3.48, 3.48, 3.78, 3.43, 3.43, 3.43, 3.43, 2.86, 2.86, 2.48, 2.22, 2.44, 2.82, 2.82, 3.91, 3.91, 2.82, 2.67, 3.6, 4.16, 4.74, 4.74, 3.33, 2.49, 4.56, 7.76, 13.27, 17.1, 15.47, 11.25, 8.93, 7.69, 6.24, 5.95, 6.53, 7.28, 7.44, 5.1, 4.45, 4.65, 5.15, 3.63, 1.99, -0.0, -0.82, -0.0, -0.0, 0.76, 1.58, 1.58, 6.94, 6.94, 7.06, 6.61, 6.68, 6.26, 5.81, 5.81, 5.34, 5.34, 5.24, 5.24, 5.24, 5.24, 5.24, 5.24, 5.24, 5.34, 5.78, 5.78, 6.16, 6.16, 6.16, 6.68, 6.6, 5.57, 3.48, 2.44, 2.2, 2.44, 2.86, 2.86, 2.44, 2.22, 1.76, 1.76, 1.76, 1.58, 1.8, 1.84, 2.23, 2.84, 3.72, 3.88, 3.88, 3.43, 3.43, 3.43, 3.43, 3.43, 3.43, 3.43, 3.43, 3.48, 3.79, 3.79, 3.48, 2.86, 2.48, 2.44, 2.2, 3.91, 3.91, 3.68, 2.66, 3.68, 3.55, 4.58, 4.29, 4.16, 3.79, 4.46, 6.28, 8.21, 11.02, 13.88, 15.44, 13.74, 9.89, 7.68, 6.14, 6.2, 7.09, 8.16, 7.52, 5.38, 4.71, 5.15, 4.43, 3.91, 2.16, -0.0, -0.0, -0.0, -0.0, -0.0, 0.76, 0.76, 6.94, 6.94, 6.94, 6.61, 6.68, 6.26, 5.81, 5.81, 5.78, 5.34, 5.34, 5.24, 5.24, 5.24, 5.24, 5.24, 5.26, 5.7, 5.78, 5.78, 6.23, 6.16, 6.16, 6.16, 6.6, 6.16, 4.55, 3.2, 2.44, 2.44, 2.86, 2.86, 2.86, 2.22, 2.22, 1.76, 1.76, 1.76, 1.8, 1.84, 1.84, 2.53, 3.14, 3.35, 3.6, 3.35, 3.35, 3.35, 3.14, 3.14, 2.84, 3.43, 3.48, 3.79, 3.79, 4.11, 3.49, 2.86, 3.15, 2.44, 3.12, 2.84, 5.37, 4.01, 3.47, 4.29, 4.29, 4.29, 4.29, 3.9, 4.14, 4.83, 7.44, 7.35, 8.43, 10.3, 12.33, 13.91, 13.04, 9.43, 7.36, 7.44, 7.44, 7.52, 7.27, 5.59, 5.06, 4.74, 3.91, 3.91, 2.8, 1.72, 0.89, -0.0, 0.83, 1.49, 0.76, 0.76, 7.4, 7.4, 6.94, 7.06, 6.68, 6.68, 6.26, 5.81, 5.81, 5.78, 5.34, 5.34, 5.78, 5.7, 5.26, 5.26, 5.7, 5.7, 5.78, 5.78, 5.78, 6.23, 6.16, 6.16, 6.6, 6.6, 5.4, 4.07, 2.86, 2.86, 2.86, 3.15, 3.15, 2.86, 2.48, 2.48, 2.22, 1.76, 1.8, 1.8, 2.23, 2.23, 3.14, 4.6, 3.07, 3.2, 3.32, 3.07, 3.07, 3.14, 3.16, 3.78, 4.07, 4.07, 3.79, 4.11, 4.11, 3.49, 2.86, 2.86, 3.12, 3.49, 5.37, 4.29, 3.72, 4.29, 4.01, 4.58, 4.58, 4.16, 4.03, 4.83, 7.44, 7.6, 6.73, 7.68, 9.56, 12.5, 14.15, 12.37, 10.07, 8.79, 7.85, 7.22, 6.64, 5.69, 4.74, 4.54, 4.11, 3.91, 3.72, 2.67, 2.54, 2.69, 2.57, 2.28, 2.28, 1.52, 7.4, 7.4, 7.4, 7.06, 7.13, 6.68, 6.26, 6.26, 5.81, 5.81, 5.78, 5.78, 5.78, 5.78, 5.7, 5.7, 5.7, 5.78, 5.78, 5.78, 5.78, 6.23, 6.16, 6.16, 6.16, 6.68, 6.04, 4.55, 3.48, 2.86, 3.15, 3.15, 3.48, 2.86, 2.86, 2.48, 2.23, 2.48, 2.23, 2.23, 2.51, 2.51, 2.84, 4.54, 3.72, 3.6, 2.91, 2.5, 2.53, 2.84, 3.43, 3.73, 4.07, 4.07, 4.07, 4.11, 4.11, 3.78, 2.86, 2.86, 2.86, 3.49, 5.03, 3.47, 3.47, 4.29, 3.91, 4.42, 4.42, 4.42, 4.26, 4.71, 7.21, 7.35, 8.31, 7.76, 8.43, 11.02, 12.39, 12.42, 11.41, 10.48, 8.85, 6.88, 5.59, 5.37, 5.15, 4.6, 3.48, 3.63, 3.55, 3.27, 3.49, 3.36, 3.51, 2.89, 2.21, 2.28, 7.4, 7.4, 7.4, 7.07, 7.06, 6.68, 6.71, 6.26, 6.26, 5.81, 6.26, 6.23, 5.78, 5.78, 5.78, 5.7, 5.7, 5.78, 5.78, 5.78, 6.23, 6.23, 6.16, 6.16, 6.16, 6.68, 6.16, 4.9, 3.48, 2.86, 3.15, 3.48, 3.48, 3.48, 2.86, 2.86, 2.23, 2.23, 2.23, 2.23, 2.51, 2.51, 2.23, 2.84, 4.89, 3.43, 2.84, 2.23, 2.84, 3.43, 4.0, 4.37, 4.07, 4.07, 4.07, 3.79, 4.11, 3.78, 3.49, 3.12, 3.12, 3.22, 3.49, 4.29, 4.29, 3.91, 4.42, 4.42, 4.95, 4.26, 4.26, 4.26, 5.72, 6.98, 9.48, 9.0, 8.06, 9.05, 10.63, 11.15, 11.44, 10.15, 8.9, 6.58, 4.95, 5.82, 5.46, 4.54, 2.95, 2.99, 3.55, 3.45, 3.36, 3.51, 3.51, 2.71, 1.54, 2.21, 7.4, 7.4, 7.4, 7.51, 7.07, 7.13, 6.68, 6.71, 6.26, 6.26, 6.26, 6.23, 6.23, 6.23, 6.23, 6.23, 6.23, 6.23, 6.16, 6.16, 6.16, 6.16, 6.16, 6.14, 6.16, 6.68, 6.68, 5.51, 4.0, 3.48, 3.48, 3.48, 3.48, 3.48, 3.48, 2.86, 2.58, 2.23, 2.51, 2.51, 2.51, 2.84, 2.53, 2.53, 3.14, 4.89, 2.86, 2.86, 3.43, 3.78, 4.0, 4.07, 4.07, 4.41, 4.11, 4.11, 3.78, 3.49, 3.49, 3.49, 3.49, 3.49, 3.91, 4.29, 3.68, 3.91, 4.42, 5.03, 4.95, 4.83, 4.26, 4.26, 5.03, 6.01, 8.22, 9.17, 9.17, 8.76, 9.7, 11.14, 11.11, 10.15, 8.53, 5.86, 4.65, 4.81, 5.46, 4.58, 3.47, 2.64, 3.4, 3.32, 3.36, 3.51, 3.51, 2.59, 0.85, 0.85, 7.4, 7.4, 7.4, 7.51, 7.07, 7.13, 7.13, 6.71, 6.71, 6.71, 6.71, 6.71, 6.23, 6.23, 6.23, 6.23, 6.23, 6.23, 6.16, 6.16, 6.16, 6.16, 6.14, 6.16, 6.6, 6.68, 6.68, 5.7, 4.4, 3.48, 3.48, 3.48, 3.78, 3.78, 3.78, 3.43, 3.16, 2.84, 2.51, 2.23, 2.53, 2.79, 2.79, 2.79, 3.07, 3.35, 3.78, 3.78, 4.0, 4.0, 4.07, 4.07, 4.11, 4.11, 4.11, 3.83, 3.49, 3.83, 3.83, 3.78, 3.78, 3.78, 3.49, 3.91, 3.91, 5.03, 5.03, 5.03, 4.42, 5.1, 4.26, 3.4, 4.71, 5.59, 7.27, 8.22, 8.76, 9.77, 10.05, 10.83, 11.01, 10.37, 8.09, 6.05, 4.56, 4.54, 5.21, 5.37, 4.83, 4.12, 3.45, 3.21, 3.25, 3.39, 1.76, 0.85, 0.85, 0.85, 7.84, 7.84, 7.4, 7.51, 7.51, 7.13, 7.13, 7.15, 7.15, 7.15, 6.71, 6.71, 6.71, 6.68, 6.68, 6.23, 6.23, 6.23, 6.16, 6.16, 6.16, 6.16, 6.14, 6.16, 6.6, 7.13, 7.15, 6.23, 5.02, 4.0, 3.48, 3.48, 3.78, 3.78, 3.78, 3.78, 3.43, 3.16, 2.84, 2.51, 2.53, 2.79, 3.14, 3.14, 3.14, 3.35, 3.72, 4.0, 4.0, 4.07, 4.41, 4.11, 4.11, 3.83, 3.83, 3.83, 3.83, 3.83, 3.83, 3.83, 4.11, 3.49, 3.49, 4.14, 4.14, 5.31, 5.31, 5.31, 4.83, 5.1, 4.03, 3.4, 4.83, 6.32, 7.06, 7.35, 7.52, 9.24, 10.05, 10.43, 11.48, 10.94, 9.43, 6.71, 5.13, 4.01, 4.54, 5.69, 5.64, 4.71, 3.49, 3.25, 3.16, 2.59, 0.85, -0.0, -0.0, -0.0, 7.87, 7.87, 7.87, 7.51, 7.51, 7.58, 7.58, 7.6, 7.15, 7.15, 7.15, 7.15, 7.15, 6.71, 6.68, 6.68, 6.23, 6.23, 6.16, 6.16, 6.16, 6.16, 6.16, 6.16, 6.68, 7.13, 7.15, 6.68, 5.09, 4.27, 3.48, 3.48, 4.0, 4.0, 4.0, 4.0, 3.43, 3.43, 2.84, 2.84, 2.84, 3.14, 3.14, 3.35, 3.43, 3.43, 4.0, 3.73, 4.07, 4.07, 4.11, 4.11, 4.11, 4.43, 4.12, 3.83, 3.83, 4.12, 4.12, 4.12, 3.83, 3.83, 3.49, 3.04, 4.0, 4.96, 5.31, 4.83, 4.83, 4.26, 4.71, 3.27, 5.1, 6.32, 6.73, 6.73, 6.95, 8.22, 9.24, 9.25, 11.19, 11.64, 10.07, 7.73, 6.79, 4.56, 4.43, 4.42, 5.06, 4.07, 3.77, 4.01, 2.6, 1.76, 0.85, -0.0, -0.0, -0.0, 7.87, 7.87, 7.87, 7.97, 7.52, 8.03, 7.58, 7.6, 7.6, 7.15, 7.15, 7.15, 7.15, 7.15, 6.68, 6.68, 6.68, 6.68, 6.68, 6.68, 6.16, 6.16, 6.23, 6.68, 6.68, 6.68, 6.71, 6.68, 6.14, 4.8, 4.0, 4.0, 4.0, 4.0, 4.0, 4.0, 4.0, 3.43, 3.43, 3.43, 3.43, 3.43, 3.43, 3.43, 3.78, 4.0, 3.73, 4.07, 4.07, 4.07, 4.11, 4.11, 4.11, 4.43, 4.12, 3.83, 4.11, 4.43, 4.12, 4.12, 4.12, 4.12, 3.22, 2.8, 3.45, 5.59, 5.31, 4.42, 4.26, 4.26, 4.12, 4.96, 5.89, 6.73, 7.06, 7.02, 7.35, 7.97, 8.42, 8.45, 9.89, 11.7, 10.65, 8.73, 7.44, 5.94, 4.03, 3.27, 3.63, 3.77, 4.65, 4.33, 2.6, 0.89, -0.0, -0.0, -0.0, -0.0, 7.87, 7.87, 7.87, 7.97, 7.97, 8.03, 7.58, 7.58, 7.6, 7.15, 7.15, 7.15, 7.15, 7.15, 7.13, 6.68, 6.68, 6.68, 6.68, 6.68, 6.23, 6.23, 6.26, 6.71, 6.71, 6.68, 6.68, 6.68, 6.68, 5.51, 4.27, 4.0, 4.0, 4.0, 4.0, 4.27, 4.27, 4.27, 4.27, 3.43, 3.43, 3.43, 4.0, 4.0, 4.0, 4.0, 4.0, 4.07, 4.07, 4.07, 4.11, 4.11, 4.11, 4.43, 4.11, 4.11, 4.71, 4.71, 4.43, 4.12, 4.12, 4.12, 3.47, 2.8, 3.0, 5.31, 5.31, 3.8, 4.71, 4.12, 4.34, 5.21, 6.64, 7.35, 7.35, 7.35, 7.27, 7.59, 7.48, 7.78, 9.17, 10.51, 11.06, 9.43, 8.22, 5.86, 4.0, 3.06, 3.49, 4.13, 4.17, 4.06, 2.6, 0.85, -0.0, -0.0, -0.0, -0.0, 7.87, 7.87, 7.97, 7.97, 7.97, 8.03, 8.03, 7.58, 7.6, 7.6, 7.6, 7.15, 7.15, 7.15, 7.15, 6.68, 6.68, 6.68, 6.68, 6.68, 6.68, 6.26, 6.71, 6.26, 6.23, 6.68, 6.68, 7.13, 6.68, 6.16, 5.02, 4.0, 4.0, 4.0, 4.27, 4.27, 4.27, 4.27, 4.27, 4.27, 4.27, 4.0, 4.0, 4.0, 4.0, 4.0, 3.73, 4.07, 4.07, 4.07, 4.11, 4.11, 4.11, 4.11, 4.11, 4.37, 4.71, 4.71, 4.43, 4.12, 4.12, 4.12, 3.47, 3.04, 3.0, 3.8, 4.71, 3.8, 4.96, 4.5, 4.96, 6.04, 6.83, 7.27, 7.27, 6.42, 6.88, 7.18, 7.18, 7.27, 7.27, 9.17, 10.34, 9.73, 7.44, 5.52, 4.4, 3.88, 4.4, 3.61, 4.17, 3.42, 1.76, -0.0, -0.0, -0.81, -0.81, -0.81, 7.87, 7.87, 7.87, 7.97, 7.97, 8.03, 8.03, 7.58, 7.6, 7.6, 7.6, 7.6, 7.15, 7.15, 7.15, 7.15, 6.71, 6.71, 6.71, 6.71, 6.71, 6.26, 6.26, 6.26, 6.23, 6.68, 6.68, 7.13, 7.13, 6.68, 5.57, 4.4, 4.0, 4.0, 4.4, 4.4, 4.4, 4.4, 4.27, 4.27, 4.27, 4.0, 4.0, 4.0, 4.37, 4.07, 4.07, 4.07, 4.07, 4.07, 4.11, 4.11, 4.11, 4.11, 4.37, 4.37, 4.71, 4.71, 4.43, 4.12, 4.12, 4.12, 3.49, 3.47, 2.8, 3.4, 4.26, 4.5, 5.1, 4.5, 5.1, 4.96, 6.42, 6.7, 6.7, 6.31, 6.31, 7.18, 7.59, 7.02, 6.64, 6.84, 8.84, 10.18, 8.37, 5.86, 5.28, 4.71, 4.4, 4.48, 3.82, 2.61, 1.69, -0.0, -0.0, -0.81, -0.81, -0.81, 7.87, 7.87, 7.87, 7.97, 7.97, 7.97, 8.03, 7.58, 7.6, 7.6, 7.6, 7.6, 7.6, 7.15, 7.15, 7.15, 7.15, 7.15, 6.71, 6.71, 6.71, 6.26, 6.26, 6.23, 6.68, 6.68, 7.13, 7.13, 7.07, 7.06, 6.6, 5.51, 4.4, 4.27, 4.4, 4.4, 4.8, 4.4, 4.4, 4.4, 4.27, 4.0, 4.37, 4.37, 4.07, 4.07, 4.07, 4.07, 4.07, 4.41, 4.11, 4.37, 4.37, 4.37, 4.37, 4.37, 4.71, 4.71, 4.43, 4.12, 4.12, 4.12, 3.76, 3.47, 3.04, 3.6, 4.26, 4.34, 4.96, 4.34, 4.96, 5.36, 5.36, 6.42, 6.7, 6.57, 6.57, 7.18, 7.35, 6.32, 5.49, 6.15, 7.51, 9.7, 9.7, 7.15, 6.14, 4.4, 3.68, 4.31, 3.66, 2.99, 0.75, -0.0, -0.89, -0.85, -0.85, -0.85, 7.87, 7.69, 7.84, 7.87, 7.97, 7.97, 7.52, 7.58, 7.58, 7.58, 7.6, 7.6, 7.15, 7.15, 7.15, 7.15, 7.15, 7.15, 6.68, 6.68, 6.71, 6.71, 6.71, 6.68, 7.13, 7.13, 7.07, 7.07, 7.51, 7.51, 7.07, 6.04, 4.9, 4.4, 4.4, 4.4, 4.8, 4.8, 4.4, 4.4, 4.4, 4.55, 4.55, 4.55, 4.07, 4.07, 4.07, 4.07, 4.07, 4.41, 4.65, 4.65, 4.65, 4.37, 4.37, 4.37, 4.71, 4.71, 4.43, 4.43, 4.43, 4.12, 4.12, 3.47, 3.47, 3.0, 3.6, 4.12, 4.2, 4.83, 4.83, 5.21, 5.21, 5.06, 6.42, 6.31, 7.18, 7.68, 7.06, 5.69, 5.49, 6.83, 6.83, 8.64, 9.17, 8.22, 6.05, 3.69, 2.99, 3.73, 4.31, 2.93, 0.85, -0.0, -0.89, -0.85, -0.85, -0.85, 7.69, 7.69, 7.69, 7.4, 7.4, 7.51, 7.51, 7.51, 7.51, 7.58, 7.58, 7.13, 7.13, 7.15, 7.6, 7.58, 7.58, 7.13, 7.13, 7.15, 7.15, 7.15, 7.13, 7.13, 7.51, 7.51, 7.51, 7.51, 7.51, 7.51, 7.51, 7.06, 5.57, 5.02, 4.4, 4.6, 5.02, 5.02, 4.8, 4.4, 4.4, 4.55, 4.55, 4.55, 4.55, 4.29, 4.07, 4.07, 4.07, 4.29, 4.65, 4.65, 4.65, 4.37, 4.37, 4.37, 4.71, 4.71, 4.43, 4.43, 4.74, 4.43, 4.12, 4.12, 3.47, 3.0, 3.6, 3.45, 4.0, 4.83, 5.06, 4.71, 4.92, 5.76, 5.9, 6.31, 7.18, 7.35, 6.44, 4.95, 5.49, 6.53, 7.41, 9.4, 8.27, 7.59, 5.18, 3.76, 3.68, 3.82, 3.6, 2.99, 1.69, -0.0, -0.85, -0.94, -0.94, -0.94, 7.69, 7.69, 7.26, 7.26, 7.4, 7.4, 7.4, 7.51, 7.51, 7.51, 7.51, 7.13, 7.13, 7.58, 7.58, 7.58, 7.6, 7.6, 7.15, 7.15, 7.6, 7.58, 7.51, 7.51, 7.51, 7.97, 7.52, 7.51, 7.51, 7.51, 7.52, 7.51, 6.47, 5.51, 4.6, 4.6, 4.6, 5.09, 5.02, 4.8, 4.8, 4.8, 4.55, 4.55, 4.55, 4.55, 4.55, 4.55, 4.55, 4.29, 4.65, 4.65, 4.65, 4.37, 4.37, 4.37, 4.71, 4.71, 4.43, 4.74, 4.74, 4.74, 4.12, 4.12, 3.47, 2.8, 3.0, 2.96, 4.12, 4.34, 4.2, 4.71, 5.76, 6.31, 6.0, 6.31, 6.88, 6.64, 5.59, 4.71, 5.76, 6.95, 8.03, 8.38, 6.32, 5.13, 3.69, 3.68, 4.48, 4.48, 3.68, 2.25, 0.89, -0.0, -0.85, -0.94, -0.94, -0.94, 7.69, 7.69, 7.26, 7.26, 7.4, 7.4, 7.4, 7.4, 7.51, 7.51, 7.51, 7.07, 7.58, 7.58, 7.58, 7.6, 7.6, 7.6, 7.6, 7.58, 7.58, 7.52, 7.97, 7.51, 7.97, 7.97, 7.97, 7.58, 7.58, 7.51, 7.51, 7.51, 7.07, 6.04, 5.09, 4.6, 4.6, 5.09, 5.09, 5.09, 5.02, 4.8, 4.8, 4.9, 5.08, 4.93, 4.55, 4.55, 4.55, 4.93, 4.65, 4.65, 4.65, 4.65, 5.01, 5.01, 4.71, 4.71, 4.43, 4.74, 4.74, 4.74, 4.74, 4.12, 3.47, 3.45, 3.0, 2.96, 4.12, 4.12, 4.0, 4.83, 5.9, 6.31, 6.31, 5.64, 6.14, 5.76, 5.38, 5.64, 5.64, 6.53, 8.12, 8.3, 5.06, 3.49, 3.39, 4.06, 4.48, 5.1, 3.68, 2.31, 0.85, -0.0, -0.94, -1.75, -1.75, -1.75, 7.74, 7.74, 7.69, 7.26, 7.4, 7.4, 7.4, 7.51, 7.51, 7.51, 7.51, 7.51, 7.58, 7.58, 7.58, 7.6, 8.05, 8.05, 7.6, 7.58, 8.03, 8.03, 8.03, 8.03, 8.03, 8.03, 8.03, 8.03, 7.58, 7.13, 7.51, 7.51, 7.51, 6.61, 5.57, 4.66, 4.77, 4.8, 5.24, 5.09, 5.09, 5.09, 5.09, 5.31, 5.31, 5.31, 5.08, 5.08, 4.93, 4.93, 4.65, 4.65, 5.01, 5.01, 5.21, 5.21, 4.94, 4.71, 4.74, 4.74, 4.74, 4.74, 4.74, 4.42, 3.84, 3.47, 3.45, 3.42, 3.4, 4.34, 4.0, 5.06, 5.9, 6.57, 6.57, 6.18, 5.24, 5.59, 5.38, 5.64, 6.14, 6.31, 7.9, 8.99, 7.38, 3.39, 2.95, 4.48, 5.29, 5.29, 3.76, 2.21, 0.77, -0.0, -1.75, -1.84, -1.84, -1.84, 8.3, 8.3, 7.87, 7.87, 7.52, 7.51, 7.52, 7.97, 7.97, 7.52, 7.51, 7.58, 7.58, 8.03, 8.03, 8.05, 8.05, 8.05, 8.05, 8.03, 8.03, 8.03, 8.03, 8.03, 8.03, 8.03, 8.03, 8.03, 7.58, 7.13, 7.13, 7.51, 7.51, 7.07, 6.16, 5.24, 4.77, 4.77, 4.8, 5.24, 5.24, 5.51, 5.57, 5.51, 5.31, 5.31, 5.08, 5.08, 5.08, 5.08, 5.08, 4.84, 5.21, 5.21, 5.21, 5.21, 4.94, 5.29, 5.01, 4.74, 4.74, 4.74, 4.74, 4.74, 4.12, 3.47, 3.45, 3.42, 3.4, 4.34, 4.2, 4.92, 5.76, 6.57, 6.7, 6.24, 4.83, 4.83, 4.96, 5.64, 5.52, 5.76, 7.12, 9.49, 8.99, 5.6, 3.68, 4.48, 5.89, 5.89, 4.58, 2.21, 0.77, -0.0, -1.75, -2.69, -2.69, -2.69, 8.42, 8.42, 8.42, 7.97, 7.97, 7.97, 7.97, 7.97, 7.97, 8.03, 8.03, 8.03, 8.03, 8.03, 8.05, 8.05, 8.05, 8.05, 8.05, 8.05, 8.05, 8.03, 8.47, 8.03, 8.03, 8.03, 7.97, 7.97, 7.58, 7.58, 7.13, 7.13, 7.58, 7.13, 6.61, 5.7, 4.8, 4.77, 4.77, 5.24, 5.24, 5.57, 5.57, 5.99, 5.81, 5.81, 5.6, 5.47, 5.47, 5.08, 5.08, 5.47, 5.21, 5.21, 5.21, 5.21, 5.29, 5.29, 5.29, 5.01, 5.01, 4.74, 4.74, 4.74, 4.12, 3.84, 3.72, 3.45, 3.42, 4.0, 4.2, 4.92, 5.76, 6.57, 6.7, 6.42, 5.38, 4.96, 4.96, 5.9, 5.52, 6.57, 7.24, 8.84, 8.99, 6.88, 4.93, 5.02, 5.8, 6.67, 5.2, 2.39, -0.0, -0.0, -1.75, -2.69, -2.69, -2.69, 8.42, 8.42, 8.42, 8.42, 8.42, 8.47, 8.47, 8.47, 8.47, 8.03, 8.03, 8.03, 8.47, 8.49, 8.49, 8.49, 8.49, 8.49, 8.49, 8.05, 8.05, 8.03, 8.47, 8.47, 8.03, 8.03, 8.47, 7.97, 8.03, 7.58, 7.13, 7.13, 7.58, 7.13, 6.68, 6.23, 5.24, 4.8, 4.77, 4.89, 5.24, 5.7, 5.99, 5.99, 5.81, 5.81, 5.81, 5.6, 5.6, 5.6, 5.6, 5.47, 5.21, 5.21, 5.21, 5.58, 5.29, 5.29, 5.29, 5.01, 5.01, 5.01, 4.74, 4.74, 4.74, 4.12, 4.12, 3.85, 3.42, 3.4, 3.56, 4.92, 5.76, 6.42, 6.42, 6.42, 5.9, 5.64, 4.83, 5.64, 5.52, 5.76, 6.7, 8.45, 9.11, 7.49, 5.8, 5.29, 5.8, 6.67, 5.1, 2.39, -0.0, -0.94, -2.69, -3.45, -3.45, -3.45, 8.42, 8.42, 8.42, 8.42, 8.47, 8.47, 8.47, 8.47, 8.49, 8.49, 8.49, 8.49, 8.49, 8.49, 8.49, 8.49, 8.49, 8.49, 8.49, 8.49, 8.47, 8.47, 8.47, 8.47, 8.03, 8.03, 8.03, 8.47, 8.03, 7.58, 7.58, 7.58, 7.58, 7.58, 7.13, 6.23, 5.7, 5.24, 5.24, 5.33, 5.33, 5.7, 5.7, 5.99, 5.99, 5.81, 5.81, 6.23, 6.23, 5.81, 5.81, 5.47, 5.47, 5.21, 5.21, 5.75, 5.75, 5.29, 5.29, 5.29, 5.01, 5.01, 4.74, 4.74, 4.74, 4.12, 4.12, 4.1, 3.84, 3.4, 3.56, 4.92, 5.76, 7.27, 6.04, 5.9, 5.52, 5.06, 4.83, 4.07, 4.92, 5.41, 6.45, 7.63, 8.72, 8.18, 6.65, 5.8, 6.1, 6.67, 5.99, 3.11, -0.0, -1.55, -3.09, -3.91, -3.91, -3.91, 8.42, 8.42, 8.42, 8.47, 8.47, 8.47, 8.47, 8.47, 8.49, 8.49, 8.49, 8.49, 8.49, 8.49, 8.49, 8.49, 8.49, 8.49, 8.49, 8.49, 8.49, 8.49, 8.49, 8.47, 8.03, 8.05, 8.03, 8.03, 8.03, 8.03, 7.58, 7.58, 7.58, 7.58, 7.13, 6.61, 6.6, 6.16, 5.7, 5.7, 5.78, 5.7, 6.14, 6.16, 6.04, 6.04, 5.88, 6.3, 6.3, 6.3, 5.6, 5.6, 5.47, 5.37, 5.75, 5.75, 5.75, 5.49, 5.29, 5.29, 5.29, 5.29, 5.01, 4.74, 4.74, 4.45, 4.12, 4.1, 3.84, 3.4, 3.56, 4.66, 5.32, 6.97, 5.64, 4.92, 4.92, 4.71, 4.07, 3.88, 4.07, 4.92, 5.63, 6.56, 8.31, 8.43, 7.36, 6.52, 6.65, 6.65, 5.93, 3.51, -0.0, -1.63, -3.4, -4.5, -4.5, -4.5, 8.42, 8.42, 8.42, 8.47, 8.47, 8.47, 8.47, 8.47, 8.49, 8.49, 8.49, 8.49, 8.49, 8.49, 8.49, 8.49, 8.49, 8.49, 8.49, 8.49, 8.49, 8.49, 8.49, 8.47, 8.03, 8.05, 8.03, 8.03, 8.03, 8.03, 7.58, 7.58, 7.58, 7.58, 7.13, 6.61, 6.6, 6.16, 5.7, 5.7, 5.78, 5.7, 6.14, 6.16, 6.04, 6.04, 5.88, 6.3, 6.3, 6.3, 5.6, 5.6, 5.47, 5.37, 5.75, 5.75, 5.75, 5.49, 5.29, 5.29, 5.29, 5.29, 5.01, 4.74, 4.74, 4.45, 4.12, 4.1, 3.84, 3.4, 3.56, 4.66, 5.32, 6.97, 5.64, 4.92, 4.71, 4.71, 4.07, 3.88, 4.07, 4.07, 5.14, 5.86, 7.25, 8.18, 7.45, 7.23, 7.13, 7.25, 6.56, 3.51, -0.0, -1.96, -3.77, -5.1, -5.1, -5.1]}, {"header": {"dx": 0.06612293990616946, "dy": 0.0552356325346848, "nx": 98, "ny": 59, "la1": 35.046912555036876, "la2": 31.78801023549047, "lo1": -121.43107172385933, "lo2": -114.95102361305473, "refTime": "2026041119", "parameterCategory": 1, "parameterNumber": 3}, "data": [1.24, 1.24, 1.49, 1.61, 1.88, 1.61, 1.33, 1.13, 1.11, 1.08, 1.73, 1.84, 1.75, 1.75, 1.65, 1.73, 2.12, 2.99, 2.8, 3.22, 3.22, 3.22, 1.99, 1.84, 0.96, 0.0, 0.0, -0.99, -2.68, -3.2, -3.35, -4.34, -4.47, -4.47, -4.47, -4.34, -4.77, -4.4, -3.93, -3.72, 0.0, 3.2, 5.51, 7.01, 7.89, 7.85, 8.29, 7.85, 7.85, 7.85, 7.37, 6.88, 6.02, 5.51, 4.98, 3.93, 3.48, 3.16, 3.72, 2.21, 1.9, 6.71, 10.25, 11.18, 11.5, 11.37, 10.7, 10.25, 9.62, 8.66, 6.33, 3.32, 1.99, 3.58, 4.92, 5.81, 7.15, 8.46, 10.25, 10.14, 10.14, 9.92, 9.92, 9.92, 9.68, 8.82, 9.06, 9.92, 9.97, 10.41, 11.05, 11.14, 11.62, 11.59, 11.59, 11.59, 11.62, 12.07, 1.26, 1.24, 1.24, 1.49, 1.61, 1.61, 1.6, 1.8, 1.76, 1.73, 2.4, 3.77, 3.6, 2.54, 2.69, 2.82, 1.84, 2.8, 3.76, 3.63, 4.74, 4.02, 2.8, 1.52, 0.88, 0.0, -0.88, -1.08, -2.8, -3.39, -3.82, -4.34, -4.47, -4.47, -4.47, -4.47, -4.92, -4.92, -4.82, -2.8, 3.2, 6.71, 7.6, 7.15, 7.1, 7.85, 7.85, 7.85, 7.37, 7.12, 7.12, 6.57, 6.16, 5.2, 4.19, 4.11, 4.11, 3.79, 2.95, 2.68, 4.22, 8.01, 9.83, 9.97, 10.4, 10.32, 8.8, 7.89, 7.48, 7.01, 6.31, 4.75, 1.75, 3.35, 5.81, 8.05, 9.35, 8.46, 10.25, 10.14, 10.14, 9.92, 9.92, 9.92, 9.68, 8.82, 9.06, 9.92, 9.97, 10.41, 11.05, 11.14, 11.62, 11.59, 11.59, 11.59, 11.62, 12.07, 0.8, 1.24, 1.24, 1.9, 1.61, 1.88, 1.84, 2.23, 2.48, 2.44, 2.84, 3.47, 4.5, 3.6, 2.4, 1.73, 1.72, 2.6, 3.91, 5.06, 4.43, 4.02, 4.02, 4.02, 2.49, 0.0, -0.81, -1.83, -2.84, -3.58, -3.58, -3.58, -3.58, -4.02, -3.58, -4.92, -4.34, -4.92, -3.58, 2.68, 6.71, 8.05, 7.6, 7.54, 7.1, 6.94, 7.37, 7.12, 7.12, 7.12, 6.6, 6.57, 6.0, 4.89, 4.54, 4.11, 3.63, 3.63, 2.76, 2.95, 5.59, 8.45, 9.83, 9.8, 9.66, 8.95, 8.33, 7.21, 6.42, 5.93, 5.48, 4.1, 1.69, 3.22, 7.54, 9.7, 10.6, 10.14, 10.18, 11.05, 11.05, 10.41, 9.75, 9.92, 9.26, 8.8, 8.63, 9.24, 10.18, 10.41, 10.58, 10.73, 10.73, 11.14, 11.05, 11.14, 11.62, 12.07, 1.26, 1.24, 1.24, 1.9, 1.9, 2.21, 2.53, 2.84, 3.16, 3.48, 3.49, 3.49, 3.6, 3.09, 2.67, 2.82, 2.6, 3.63, 4.43, 5.15, 4.89, 4.74, 5.06, 4.29, 4.42, 3.0, 0.0, -1.8, -2.84, -2.98, -1.2, 0.99, 2.23, 2.0, 0.0, 0.0, -3.13, -3.13, 2.8, 7.55, 9.35, 8.49, 8.0, 7.54, 6.94, 6.94, 7.12, 7.53, 6.8, 6.6, 5.82, 5.58, 5.24, 4.43, 4.43, 3.91, 3.91, 3.91, 3.63, 3.93, 6.02, 8.9, 9.8, 10.28, 9.35, 8.99, 8.33, 7.45, 6.64, 5.2, 4.75, 3.19, 0.79, 2.4, 7.55, 10.89, 11.8, 11.95, 11.51, 11.95, 11.4, 10.68, 10.18, 9.66, 9.68, 9.68, 9.92, 10.18, 10.18, 10.41, 10.14, 10.28, 10.28, 10.7, 10.6, 10.7, 11.62, 11.62, 1.6, 1.58, 1.58, 1.9, 2.15, 2.5, 2.79, 3.14, 3.43, 3.78, 4.07, 3.83, 3.4, 2.99, 2.82, 3.47, 4.11, 4.43, 5.21, 5.58, 6.64, 5.72, 5.72, 6.08, 5.49, 6.08, 4.84, 2.0, 0.0, 1.2, 4.4, 5.6, 6.21, 5.58, 6.0, 6.51, 6.07, 5.81, 7.1, 9.35, 9.83, 8.9, 8.33, 7.85, 7.37, 7.12, 7.53, 7.2, 6.82, 6.55, 5.84, 5.49, 4.74, 4.74, 4.74, 3.72, 3.72, 3.72, 4.89, 4.6, 6.64, 8.9, 10.7, 10.7, 10.28, 8.9, 8.45, 8.33, 7.41, 5.76, 4.3, 2.41, 0.0, 0.83, 6.71, 10.52, 12.09, 12.41, 12.41, 11.52, 11.4, 11.33, 10.18, 9.66, 9.66, 10.18, 10.6, 10.6, 10.18, 10.14, 10.25, 10.28, 10.73, 10.7, 11.05, 11.14, 11.62, 11.62, 1.2, 1.26, 1.86, 2.23, 2.15, 2.5, 3.07, 3.6, 3.35, 3.88, 4.55, 4.71, 4.42, 3.2, 3.22, 4.54, 5.21, 5.6, 6.0, 6.16, 6.0, 6.16, 6.64, 6.64, 6.64, 6.64, 7.01, 7.01, 6.94, 7.45, 6.64, 6.88, 6.16, 6.16, 6.94, 7.42, 7.63, 7.37, 7.6, 8.9, 9.83, 10.66, 9.7, 9.06, 8.56, 8.56, 7.76, 7.2, 6.79, 6.11, 5.37, 5.06, 4.58, 4.58, 3.97, 3.55, 3.55, 4.58, 5.24, 5.6, 7.1, 9.35, 11.14, 11.59, 11.14, 9.8, 8.49, 8.33, 7.81, 6.83, 4.44, 2.59, 0.0, 0.0, 6.45, 11.61, 12.53, 12.27, 12.04, 11.95, 11.95, 11.33, 10.6, 9.77, 9.9, 10.32, 10.18, 10.18, 9.92, 10.14, 10.7, 11.18, 11.14, 10.6, 11.05, 11.15, 11.62, 11.59, 1.34, 1.6, 2.12, 1.86, 2.4, 2.8, 2.91, 3.2, 3.6, 4.11, 5.31, 5.75, 5.37, 3.63, 5.21, 5.51, 6.36, 6.36, 6.45, 6.51, 5.75, 5.6, 6.02, 6.45, 7.01, 6.58, 6.58, 7.01, 7.47, 6.0, 7.01, 6.2, 6.2, 6.2, 6.98, 7.42, 7.63, 8.91, 8.82, 8.49, 10.28, 10.28, 10.65, 10.41, 10.05, 8.72, 8.4, 7.82, 7.2, 6.98, 6.01, 5.37, 5.37, 4.58, 3.55, 3.77, 3.55, 4.74, 4.89, 5.6, 7.55, 9.8, 11.59, 12.49, 11.95, 10.14, 8.77, 8.06, 7.44, 6.31, 4.25, 2.49, 0.0, 0.0, 6.6, 12.04, 13.18, 12.41, 12.04, 11.59, 11.95, 11.33, 10.18, 9.36, 8.8, 8.55, 9.13, 9.24, 9.49, 10.14, 10.26, 10.73, 11.05, 11.05, 11.05, 11.59, 11.59, 11.59, 1.34, 1.79, 1.7, 2.12, 2.17, 2.6, 3.07, 3.39, 3.82, 4.11, 5.09, 5.4, 6.0, 6.36, 7.01, 5.75, 6.02, 6.45, 6.51, 6.88, 5.94, 5.09, 5.73, 6.26, 6.2, 6.51, 6.58, 6.64, 6.08, 5.6, 5.81, 6.71, 7.15, 7.15, 6.94, 6.7, 6.7, 6.94, 8.91, 9.74, 9.39, 8.94, 8.82, 8.48, 8.48, 9.45, 8.4, 7.81, 7.81, 7.21, 5.37, 5.69, 5.69, 5.24, 4.68, 4.68, 4.58, 4.43, 4.98, 6.16, 8.33, 10.7, 11.62, 12.04, 11.95, 10.41, 8.72, 6.82, 6.01, 5.21, 3.25, 1.63, 0.0, 0.0, 4.5, 10.18, 13.83, 13.83, 12.49, 11.62, 9.83, 9.72, 8.82, 7.6, 7.03, 7.35, 7.47, 8.99, 9.68, 10.25, 10.28, 10.73, 11.51, 11.95, 11.51, 11.59, 12.04, 11.95, 1.79, 1.79, 2.24, 2.24, 2.68, 2.68, 2.68, 3.07, 3.53, 3.87, 4.34, 4.88, 7.6, 7.08, 6.88, 6.64, 7.15, 7.1, 7.1, 7.08, 7.45, 7.01, 6.26, 6.26, 5.73, 6.07, 6.51, 6.94, 6.4, 5.64, 5.81, 6.71, 6.71, 6.58, 5.6, 5.6, 6.94, 8.38, 8.48, 8.48, 9.29, 8.48, 7.94, 7.01, 7.45, 7.37, 8.63, 9.32, 8.42, 7.76, 8.18, 7.2, 6.79, 7.15, 6.73, 6.45, 6.55, 5.58, 5.6, 7.37, 9.8, 11.59, 11.15, 11.59, 10.89, 10.18, 8.43, 6.32, 4.34, 2.57, 1.69, 0.73, 0.0, 0.0, 1.5, 9.13, 14.3, 14.75, 13.41, 11.53, 10.6, 8.94, 7.89, 6.94, 6.28, 6.28, 7.42, 8.33, 8.91, 9.83, 10.28, 11.18, 11.6, 12.85, 12.41, 12.49, 12.04, 11.96, 1.79, 2.24, 2.24, 2.68, 2.68, 2.68, 2.68, 3.13, 3.13, 3.53, 3.97, 3.98, 3.98, 4.3, 5.94, 6.17, 6.71, 7.15, 7.6, 7.45, 7.45, 7.45, 7.45, 7.45, 6.58, 6.51, 6.51, 6.94, 6.51, 6.07, 6.26, 6.71, 6.58, 6.23, 5.72, 5.6, 6.07, 6.45, 8.06, 8.4, 7.2, 7.2, 6.7, 6.02, 5.75, 6.94, 7.12, 7.2, 7.81, 8.43, 8.8, 8.95, 8.4, 8.4, 8.21, 7.82, 7.2, 6.8, 6.94, 8.9, 11.15, 12.04, 12.91, 11.05, 10.41, 9.36, 8.42, 5.86, 3.21, 0.85, 0.0, 0.0, -0.74, -1.41, 0.0, 6.7, 13.41, 14.3, 12.43, 11.71, 10.75, 9.33, 7.6, 6.51, 5.75, 5.75, 6.71, 7.6, 8.49, 9.83, 10.73, 11.62, 12.52, 12.94, 12.85, 12.41, 12.41, 11.95, 1.79, 2.24, 2.24, 2.68, 3.13, 3.13, 3.07, 3.07, 2.68, 3.13, 3.07, 3.53, 3.39, 3.39, 5.26, 5.29, 5.81, 3.53, 3.07, 3.14, 4.98, 4.98, 4.98, 4.54, 6.0, 6.07, 6.07, 6.71, 6.51, 6.07, 5.21, 5.4, 5.37, 5.58, 5.58, 6.52, 7.21, 8.06, 6.18, 6.11, 6.55, 6.6, 6.16, 6.58, 6.58, 6.45, 6.57, 6.8, 6.8, 8.06, 9.97, 10.18, 9.75, 9.75, 9.24, 9.66, 9.24, 8.06, 8.0, 9.83, 12.04, 12.41, 11.36, 10.18, 8.95, 9.42, 8.38, 6.53, 3.45, 1.75, 0.0, -1.52, -2.21, -2.25, -0.78, 6.44, 12.07, 12.96, 11.8, 10.85, 10.27, 9.6, 8.63, 6.26, 5.36, 5.36, 6.71, 8.01, 8.94, 10.28, 11.18, 12.07, 12.07, 12.04, 12.49, 12.41, 11.96, 11.51, 1.79, 1.79, 2.24, 2.68, 3.13, 3.13, 3.07, 3.07, 2.63, 2.68, 2.68, 3.13, 3.07, 2.91, 3.32, 3.32, 3.07, 2.68, 2.5, 2.53, 2.51, 2.48, 2.44, 4.29, 5.36, 6.0, 5.6, 3.07, 4.29, 4.84, 4.74, 4.74, 5.06, 5.15, 5.58, 6.21, 6.44, 5.77, 5.37, 5.37, 5.84, 5.58, 5.94, 6.58, 6.58, 6.64, 7.94, 8.82, 8.82, 9.74, 9.68, 9.49, 10.14, 11.05, 11.05, 11.36, 11.37, 8.72, 8.45, 10.73, 12.04, 11.8, 10.68, 8.72, 8.55, 11.5, 12.7, 11.5, 8.21, 6.21, 3.22, -0.83, -4.12, -3.49, -0.89, 8.06, 12.07, 11.05, 9.33, 8.8, 9.42, 9.9, 10.18, 7.85, 6.51, 6.65, 7.11, 8.91, 9.81, 10.28, 10.73, 10.73, 11.18, 11.62, 11.59, 11.59, 11.51, 11.05, 1.2, 1.79, 1.79, 2.24, 2.68, 3.13, 3.13, 3.13, 3.07, 3.07, 2.63, 2.68, 3.13, 3.07, 2.91, 2.68, 2.68, 2.68, 2.5, 2.21, 1.84, 1.8, 1.76, 1.94, 2.2, 2.84, 2.44, 1.76, 1.8, 1.13, 2.99, 4.58, 4.58, 5.49, 5.49, 5.49, 5.77, 6.11, 5.37, 4.58, 5.15, 5.6, 5.51, 4.85, 6.26, 7.15, 8.05, 8.05, 8.05, 8.05, 6.98, 6.98, 8.05, 8.94, 10.73, 11.57, 11.62, 10.94, 8.77, 10.73, 12.04, 11.11, 9.9, 7.35, 10.16, 13.92, 16.39, 17.87, 15.31, 13.01, 10.18, 3.22, -3.48, -4.11, 2.2, 9.68, 11.51, 9.75, 8.24, 7.67, 8.55, 9.66, 9.83, 10.89, 9.97, 9.49, 9.24, 9.36, 9.81, 10.26, 9.83, 10.28, 10.73, 10.73, 11.18, 11.14, 11.05, 10.6, 0.6, 1.2, 1.79, 2.24, 2.24, 2.68, 3.13, 3.13, 3.58, 3.09, 3.07, 3.07, 3.13, 3.13, 3.07, 2.91, 2.68, 2.68, 3.07, 2.53, 1.84, 1.6, 1.8, 1.58, 1.76, 1.73, 1.08, 1.11, 0.59, 0.61, 1.13, 3.91, 5.69, 4.74, 5.49, 5.82, 6.08, 6.45, 4.95, 4.29, 4.54, 4.6, 5.2, 6.14, 6.71, 7.6, 6.71, 7.15, 7.15, 6.58, 6.58, 6.71, 6.61, 6.58, 6.71, 6.21, 7.6, 10.16, 11.03, 10.28, 11.15, 11.56, 10.18, 9.11, 11.62, 13.83, 15.03, 16.27, 16.12, 13.75, 13.75, 9.66, 4.34, 3.82, 7.85, 10.89, 10.32, 9.03, 8.43, 8.8, 9.13, 8.72, 9.11, 9.58, 10.8, 11.61, 11.11, 10.41, 10.16, 9.72, 9.36, 10.28, 10.28, 10.28, 9.83, 10.7, 10.14, 10.14, 0.57, 0.8, 1.6, 1.7, 2.24, 2.24, 2.68, 3.13, 3.13, 3.58, 3.58, 3.58, 3.13, 3.13, 3.07, 3.07, 2.91, 3.07, 2.79, 1.84, 1.13, 1.13, 1.13, 1.8, 1.76, 1.08, 0.63, 0.0, 0.0, 0.54, 1.88, 3.43, 5.69, 5.69, 6.28, 7.6, 7.81, 6.45, 5.31, 3.63, 4.6, 6.23, 6.58, 7.45, 7.5, 7.6, 8.05, 7.06, 6.61, 6.58, 6.58, 6.26, 5.36, 4.02, 3.58, 3.58, 4.8, 7.73, 9.6, 11.35, 9.7, 9.97, 9.11, 9.83, 12.07, 12.96, 13.81, 12.51, 10.55, 11.5, 14.71, 14.3, 11.36, 9.9, 10.55, 10.55, 9.43, 8.42, 8.18, 8.8, 8.72, 8.17, 8.14, 8.82, 10.16, 12.09, 12.3, 11.79, 10.75, 10.6, 10.25, 9.83, 9.83, 9.83, 10.28, 10.14, 10.14, 10.14, 0.0, 0.57, 0.8, 1.26, 1.49, 2.12, 2.17, 2.68, 3.13, 3.58, 3.58, 4.02, 3.58, 3.58, 3.13, 3.07, 3.07, 3.07, 2.79, 1.6, 1.13, 1.16, 1.84, 2.48, 1.73, 0.55, 0.0, 0.0, 0.0, 1.24, 3.6, 4.93, 4.94, 5.69, 6.9, 6.82, 6.79, 6.11, 5.69, 5.72, 5.94, 6.94, 7.63, 8.38, 8.38, 8.38, 7.94, 7.5, 7.01, 6.58, 6.58, 6.07, 5.2, 3.2, 2.68, 3.13, 4.47, 6.58, 8.17, 8.63, 7.35, 7.63, 6.61, 8.05, 9.32, 11.18, 10.02, 9.6, 9.1, 10.62, 13.49, 14.79, 13.51, 12.26, 11.64, 10.98, 9.26, 8.02, 7.76, 8.8, 8.3, 7.76, 8.06, 9.06, 9.49, 9.92, 11.27, 11.5, 11.37, 11.18, 11.05, 9.83, 10.26, 10.26, 9.81, 9.72, 9.58, 9.58, 0.0, 0.0, 0.71, 0.71, 1.24, 1.24, 1.86, 2.6, 2.63, 3.13, 3.58, 4.02, 4.02, 4.02, 3.53, 3.09, 3.53, 3.82, 2.84, 1.13, 0.0, 1.2, 3.35, 3.49, 1.73, 0.0, 0.0, 0.0, 0.57, 3.2, 5.31, 6.0, 5.75, 6.63, 6.44, 6.82, 6.82, 6.9, 7.06, 7.06, 7.63, 7.42, 8.6, 7.37, 8.6, 8.6, 8.48, 7.63, 7.06, 6.0, 6.07, 5.6, 5.6, 4.84, 4.09, 4.66, 4.66, 4.66, 5.21, 5.37, 5.69, 5.36, 4.8, 5.81, 7.21, 8.01, 8.87, 9.21, 10.6, 12.31, 13.02, 11.17, 10.83, 10.83, 10.95, 10.65, 9.24, 8.22, 9.05, 9.77, 9.13, 8.99, 9.49, 9.83, 10.68, 10.18, 9.66, 11.37, 12.04, 11.61, 10.49, 9.81, 10.26, 10.63, 10.58, 9.58, 9.58, 9.58, 0.0, 0.0, 0.0, 0.54, 1.0, 1.49, 1.9, 1.9, 2.4, 3.07, 3.09, 3.58, 4.02, 4.02, 3.98, 3.53, 4.47, 4.77, 3.43, 1.13, 0.0, 2.6, 4.6, 4.41, 2.86, 0.71, 1.2, 1.86, 3.07, 5.09, 6.0, 5.75, 5.29, 5.29, 5.29, 6.18, 6.21, 7.06, 6.52, 7.47, 8.06, 8.48, 8.06, 8.06, 8.0, 8.0, 7.44, 6.63, 6.08, 5.36, 5.6, 5.2, 5.6, 5.01, 5.6, 4.84, 4.46, 4.09, 4.11, 4.02, 4.29, 4.02, 5.2, 6.26, 7.5, 7.11, 7.15, 8.94, 10.04, 10.18, 9.3, 8.05, 8.16, 8.03, 8.16, 8.29, 8.84, 10.98, 12.56, 11.79, 10.68, 10.18, 11.11, 11.52, 11.61, 11.61, 11.61, 11.61, 12.09, 12.3, 11.61, 11.05, 10.7, 10.96, 10.68, 9.75, 9.33, 9.33, 0.0, 0.0, 0.0, 0.54, 0.65, 1.2, 1.61, 1.61, 1.9, 2.15, 2.91, 3.09, 3.53, 3.98, 3.98, 5.81, 4.47, 4.77, 4.0, 1.61, 1.2, 4.02, 5.78, 6.57, 5.6, 6.51, 3.87, 6.16, 6.57, 5.6, 5.75, 5.21, 4.94, 4.94, 4.94, 5.01, 4.65, 4.07, 4.74, 5.69, 6.18, 6.55, 7.28, 7.6, 7.44, 6.98, 6.63, 5.69, 5.37, 5.36, 5.01, 5.6, 5.36, 5.72, 6.52, 6.13, 6.0, 6.0, 5.72, 4.29, 4.02, 3.76, 5.01, 6.2, 7.6, 7.6, 7.6, 7.15, 6.98, 6.8, 5.72, 5.86, 5.61, 4.79, 3.98, 4.1, 6.98, 11.99, 14.05, 12.98, 11.61, 11.61, 12.04, 11.52, 11.79, 12.04, 11.37, 10.95, 11.61, 11.52, 12.3, 12.04, 11.36, 10.8, 10.85, 10.32, 9.9, 9.9, 0.0, 0.0, 0.0, 0.65, 1.2, 1.2, 1.88, 1.88, 1.88, 2.21, 2.5, 2.91, 2.91, 3.53, 3.58, 3.58, 4.02, 4.47, 6.02, 5.51, 5.29, 5.36, 5.33, 6.45, 6.16, 6.21, 6.21, 5.47, 5.21, 5.21, 5.01, 4.65, 4.65, 4.65, 4.65, 4.71, 4.37, 4.11, 4.11, 3.83, 4.74, 4.74, 4.74, 4.74, 5.01, 5.59, 5.31, 5.03, 4.56, 5.36, 6.0, 6.64, 7.06, 7.63, 6.8, 7.2, 8.0, 6.07, 5.49, 4.56, 4.02, 5.36, 6.64, 7.94, 8.05, 7.6, 7.55, 6.98, 6.21, 4.16, 2.47, 2.47, 1.57, 0.0, 0.0, 0.0, 5.84, 10.68, 11.5, 11.79, 12.3, 12.3, 12.04, 11.61, 10.85, 10.52, 9.74, 9.74, 10.52, 10.52, 11.61, 11.79, 11.18, 10.85, 10.27, 10.4, 10.0, 10.0, 0.0, 0.0, 0.0, 0.53, 1.16, 1.16, 1.88, 1.88, 1.88, 1.88, 1.88, 2.21, 2.5, 2.91, 2.91, 3.13, 3.09, 3.98, 4.02, 6.2, 6.64, 4.89, 4.44, 3.87, 4.11, 4.27, 4.37, 4.65, 4.65, 4.65, 4.65, 4.65, 4.65, 4.65, 4.65, 4.65, 4.37, 4.37, 4.11, 4.43, 4.43, 4.43, 4.74, 4.74, 4.71, 6.01, 5.03, 4.14, 4.56, 5.72, 6.64, 7.06, 7.47, 7.63, 7.6, 7.76, 8.21, 7.07, 6.63, 5.72, 5.72, 6.52, 8.06, 8.85, 8.33, 7.89, 8.33, 8.56, 8.05, 5.89, 5.14, 3.25, 1.57, -0.79, -2.8, 0.0, 8.19, 8.06, 8.56, 11.11, 13.23, 13.72, 13.23, 11.95, 11.37, 10.85, 10.0, 9.74, 9.74, 9.83, 10.68, 11.27, 10.96, 9.74, 9.45, 9.45, 9.2, 9.2, 0.0, 0.0, 0.61, 0.61, 1.16, 1.16, 1.61, 1.84, 1.84, 1.84, 1.84, 1.84, 2.21, 2.53, 2.21, 2.91, 3.13, 3.39, 3.39, 3.53, 3.58, 3.98, 3.53, 3.97, 3.82, 4.11, 4.27, 4.0, 4.55, 4.93, 4.65, 4.65, 4.65, 4.65, 4.65, 4.07, 4.41, 4.37, 4.37, 4.71, 4.71, 4.71, 4.43, 4.43, 4.71, 4.43, 4.37, 3.91, 5.06, 7.06, 7.47, 7.63, 7.47, 7.47, 7.47, 8.06, 8.4, 8.43, 7.44, 6.52, 6.57, 7.12, 8.29, 8.77, 9.24, 9.24, 9.24, 9.49, 9.9, 10.55, 10.79, 11.64, 10.01, 4.54, 4.02, 7.21, 6.79, 4.85, 5.36, 8.91, 13.18, 14.27, 14.84, 14.42, 13.39, 12.45, 11.92, 11.5, 11.21, 9.6, 10.1, 10.27, 9.84, 9.27, 8.88, 8.88, 9.42, 9.42, 0.0, 0.0, 0.0, 0.61, 1.16, 1.16, 1.84, 1.84, 1.84, 1.84, 1.84, 1.84, 1.84, 1.84, 1.84, 2.23, 2.91, 3.13, 3.07, 3.07, 3.13, 3.13, 3.58, 4.02, 3.98, 4.3, 4.6, 4.8, 4.8, 5.08, 4.93, 4.65, 4.65, 4.65, 4.65, 4.65, 4.07, 4.41, 4.65, 4.37, 4.71, 4.71, 5.05, 4.71, 4.71, 4.43, 5.03, 5.37, 6.08, 7.47, 7.63, 7.6, 6.9, 7.06, 7.06, 7.63, 8.06, 8.72, 8.54, 6.6, 7.12, 8.77, 9.24, 9.68, 9.54, 10.41, 10.41, 9.49, 9.75, 9.9, 10.62, 11.62, 8.99, 5.69, 6.32, 6.7, 4.8, 2.24, 3.39, 7.56, 11.62, 13.76, 14.84, 14.84, 14.05, 13.64, 13.11, 12.56, 11.83, 11.02, 9.6, 9.27, 8.93, 8.32, 8.67, 8.49, 8.63, 8.63, -0.59, -0.59, 0.0, 0.59, 1.13, 1.6, 1.84, 1.84, 1.84, 1.84, 1.84, 1.84, 1.84, 1.6, 1.8, 1.58, 2.23, 2.5, 2.68, 3.13, 3.58, 3.58, 4.02, 4.02, 4.47, 4.44, 4.77, 5.09, 5.09, 5.31, 5.08, 5.08, 5.21, 5.01, 4.65, 4.65, 4.65, 4.07, 4.07, 4.41, 4.65, 4.71, 4.71, 4.71, 4.43, 4.11, 5.69, 5.69, 6.63, 7.28, 7.28, 6.28, 6.9, 6.52, 7.47, 7.21, 6.51, 7.42, 8.4, 8.4, 7.85, 8.33, 8.77, 9.06, 9.54, 10.41, 10.41, 10.6, 9.24, 8.4, 7.76, 7.19, 8.83, 9.09, 7.96, 7.21, 4.84, 0.0, 4.02, 6.51, 10.7, 12.07, 12.79, 12.72, 12.56, 12.15, 11.99, 11.64, 11.66, 10.98, 9.43, 7.95, 7.68, 7.33, 7.92, 8.24, 8.24, 8.24, -0.57, -0.57, 0.0, 0.57, 1.11, 1.27, 1.8, 1.8, 1.84, 1.84, 1.84, 1.6, 1.6, 1.8, 1.8, 1.23, 1.73, 1.58, 2.21, 3.53, 4.47, 4.92, 4.88, 4.88, 4.88, 4.89, 4.8, 5.24, 5.09, 5.09, 5.31, 5.08, 5.08, 4.84, 4.65, 4.65, 4.65, 4.29, 4.07, 4.07, 4.07, 4.41, 4.37, 4.71, 4.43, 3.83, 3.49, 3.49, 4.12, 3.49, 3.49, 5.37, 6.08, 7.06, 7.63, 7.47, 7.01, 6.2, 7.06, 7.63, 8.48, 7.37, 7.85, 8.56, 9.06, 9.49, 9.75, 9.36, 8.8, 6.18, 5.77, 5.9, 9.37, 11.53, 10.34, 7.76, 3.35, 0.0, 4.47, 7.54, 10.18, 11.62, 11.42, 11.21, 11.02, 10.66, 10.66, 11.04, 11.03, 10.81, 10.58, 7.96, 7.33, 7.81, 7.67, 7.6, 7.42, 7.42, -0.55, -0.55, 0.0, 0.57, 1.11, 1.11, 1.58, 1.8, 1.8, 1.8, 1.8, 1.8, 1.8, 1.8, 1.11, 1.23, 1.19, 1.16, 1.57, 2.84, 4.34, 5.33, 5.24, 5.24, 5.24, 5.24, 5.24, 5.24, 5.24, 5.09, 5.09, 5.31, 5.08, 5.08, 4.65, 4.65, 4.65, 4.65, 4.07, 4.07, 4.07, 4.07, 4.11, 4.43, 4.12, 4.12, 3.49, 3.49, 2.84, 2.44, 2.22, 2.86, 5.72, 7.63, 8.06, 8.06, 7.06, 6.71, 6.71, 7.01, 6.52, 7.47, 6.88, 7.85, 8.33, 9.06, 9.24, 9.36, 7.81, 6.79, 6.44, 7.9, 9.11, 13.07, 13.91, 10.58, 5.21, 2.68, 5.36, 8.49, 10.25, 10.73, 10.62, 10.1, 10.4, 11.04, 11.04, 10.66, 10.66, 10.55, 10.98, 8.93, 7.69, 7.6, 7.6, 7.76, 6.94, 6.94, -0.61, -0.61, 0.0, 0.0, 0.55, 1.23, 1.76, 1.76, 2.22, 1.8, 1.8, 1.8, 1.8, 1.8, 1.11, 1.23, 1.19, 1.16, 1.16, 2.2, 3.88, 4.8, 5.24, 5.24, 5.24, 5.09, 5.09, 5.09, 5.09, 5.09, 5.09, 4.6, 5.09, 5.31, 5.31, 5.08, 4.93, 4.65, 4.65, 4.07, 4.07, 4.07, 4.07, 4.11, 3.83, 3.83, 3.49, 2.84, 2.22, 1.8, 2.51, 3.43, 4.27, 4.9, 6.57, 6.21, 7.06, 6.58, 5.75, 5.51, 6.13, 5.82, 7.06, 7.42, 8.6, 8.06, 8.0, 7.81, 7.41, 7.44, 6.79, 6.73, 8.53, 12.09, 14.62, 14.08, 9.26, 5.46, 6.94, 9.35, 10.28, 10.25, 9.58, 8.67, 8.88, 10.15, 11.66, 11.28, 10.66, 10.29, 9.57, 9.92, 9.43, 8.72, 7.89, 7.21, 6.79, 6.79, -0.54, -0.54, 0.0, 0.0, 0.61, 1.08, 1.73, 1.73, 1.94, 1.76, 1.8, 1.8, 1.58, 1.76, 1.23, 1.08, 1.19, 1.16, 1.14, 1.16, 2.86, 4.11, 4.77, 5.24, 5.24, 5.09, 5.09, 5.09, 4.8, 4.27, 4.11, 4.34, 4.8, 5.09, 5.31, 5.08, 4.93, 4.93, 4.65, 4.41, 4.07, 4.07, 4.07, 4.07, 3.79, 3.49, 2.4, 1.73, 1.8, 2.53, 3.72, 4.55, 5.08, 5.08, 4.8, 6.0, 6.4, 6.64, 6.02, 5.94, 5.21, 5.82, 6.45, 7.37, 7.12, 8.0, 7.15, 6.79, 6.79, 7.15, 6.79, 6.11, 7.35, 9.17, 10.95, 12.13, 11.48, 9.89, 8.82, 9.92, 9.97, 8.64, 7.51, 7.6, 7.67, 8.32, 9.92, 10.66, 11.04, 10.04, 10.04, 9.4, 10.04, 8.67, 8.19, 7.89, 7.42, 7.42, -1.16, -1.16, 0.0, 0.0, 0.54, 1.19, 1.73, 1.73, 1.73, 1.73, 1.76, 1.76, 1.76, 1.76, 1.23, 1.19, 1.19, 1.16, 1.14, 1.14, 1.7, 3.16, 4.19, 4.8, 5.24, 5.24, 5.09, 4.9, 4.55, 3.72, 3.6, 4.43, 4.8, 5.09, 5.09, 4.9, 4.55, 4.55, 4.29, 4.41, 4.41, 4.07, 4.37, 5.21, 5.49, 4.11, 2.86, 2.84, 4.6, 4.27, 5.08, 5.21, 5.21, 4.84, 4.37, 3.72, 6.0, 6.4, 5.94, 5.6, 5.21, 5.75, 6.51, 6.57, 6.8, 7.2, 7.81, 6.11, 5.49, 6.6, 6.44, 6.79, 8.73, 8.42, 6.43, 6.6, 9.12, 11.38, 12.27, 11.02, 10.0, 8.91, 7.87, 6.7, 7.68, 7.95, 8.88, 9.81, 9.43, 8.73, 8.73, 8.79, 8.8, 9.33, 8.82, 8.36, 7.89, 7.89, -1.14, -1.14, -0.58, 0.0, 0.59, 1.16, 1.16, 1.55, 1.73, 1.73, 1.73, 1.76, 1.76, 1.76, 1.57, 1.19, 1.07, 1.16, 1.05, 0.58, 1.14, 1.73, 2.2, 3.72, 4.66, 5.24, 5.09, 5.31, 4.37, 3.43, 3.82, 4.44, 4.89, 5.24, 5.09, 4.8, 4.8, 4.55, 4.55, 4.07, 4.41, 4.07, 4.07, 4.0, 4.37, 5.49, 4.74, 4.55, 5.47, 5.21, 4.71, 4.37, 4.71, 4.65, 4.07, 3.43, 3.14, 3.35, 4.98, 5.2, 5.6, 6.16, 6.16, 6.16, 6.8, 7.35, 8.4, 9.32, 6.99, 6.02, 6.02, 7.76, 10.29, 10.18, 6.4, 4.21, 6.08, 10.58, 13.26, 12.26, 11.03, 8.37, 7.72, 7.72, 8.37, 9.27, 8.55, 7.6, 6.39, 5.94, 6.32, 7.44, 8.63, 9.49, 9.26, 8.82, 8.8, 8.8, -1.12, -1.12, -0.58, 0.0, 0.0, 0.53, 1.16, 1.16, 1.7, 1.73, 1.73, 1.73, 1.76, 1.57, 1.73, 1.19, 1.16, 1.16, 1.05, 0.58, 0.58, 0.57, 1.14, 2.86, 4.27, 5.09, 5.09, 4.9, 4.0, 3.43, 4.11, 4.88, 4.8, 4.77, 4.6, 4.6, 4.4, 4.27, 4.0, 4.07, 4.07, 4.07, 4.07, 4.0, 3.43, 3.63, 4.58, 4.71, 4.71, 4.11, 4.11, 3.79, 3.49, 3.79, 3.48, 3.16, 3.14, 2.79, 3.35, 4.98, 5.6, 6.16, 5.82, 6.21, 6.8, 7.12, 7.63, 8.63, 8.22, 6.14, 4.92, 7.55, 9.2, 11.7, 9.55, 5.86, 6.15, 9.04, 10.63, 11.14, 10.15, 8.93, 8.0, 8.93, 9.21, 9.07, 7.31, 6.44, 4.65, 4.65, 5.43, 6.79, 8.46, 8.9, 9.26, 8.82, 9.11, 9.11, -1.76, -1.76, -1.12, 0.0, 0.0, 0.0, 0.53, 1.16, 1.16, 1.7, 1.73, 1.73, 1.73, 1.73, 1.19, 1.07, 1.16, 1.16, 1.14, 1.14, 1.14, 0.57, 0.57, 1.67, 3.15, 4.4, 5.09, 4.9, 5.58, 4.0, 4.8, 5.09, 4.77, 4.77, 4.6, 4.6, 4.52, 4.11, 4.27, 4.0, 4.07, 4.07, 4.07, 4.07, 3.48, 2.48, 3.12, 3.49, 3.49, 3.49, 3.49, 3.79, 3.48, 2.86, 3.16, 3.16, 3.14, 3.14, 3.35, 4.11, 5.6, 5.58, 5.82, 6.4, 6.8, 7.12, 6.94, 7.21, 6.28, 5.36, 4.38, 5.81, 8.17, 10.75, 10.48, 9.18, 7.78, 8.31, 8.12, 8.01, 8.09, 8.93, 9.56, 9.21, 9.76, 8.68, 7.2, 5.29, 4.87, 4.81, 5.2, 6.65, 7.6, 8.05, 8.8, 8.8, 8.67, 8.67, -1.76, -1.76, -1.12, -0.57, 0.0, 0.0, 0.58, 0.53, 1.16, 1.16, 1.7, 1.73, 1.73, 1.73, 1.19, 1.07, 1.16, 0.59, 1.14, 1.14, 1.23, 1.12, 0.57, 1.12, 1.7, 3.78, 4.6, 4.6, 4.8, 5.58, 4.55, 4.8, 4.6, 4.19, 4.19, 4.19, 4.11, 4.11, 3.6, 3.72, 3.78, 3.48, 3.48, 3.49, 3.12, 2.86, 2.44, 2.86, 3.2, 3.48, 3.48, 3.48, 3.15, 2.86, 3.16, 2.84, 3.14, 3.72, 3.72, 4.11, 4.4, 6.16, 6.9, 6.21, 6.8, 7.2, 7.12, 5.6, 4.02, 4.02, 4.6, 4.66, 5.82, 6.98, 9.79, 11.28, 9.54, 7.24, 6.2, 5.86, 6.79, 8.65, 9.92, 10.19, 9.48, 8.15, 6.23, 4.12, 4.58, 4.89, 5.4, 5.81, 6.65, 7.15, 7.55, 8.77, 8.36, 8.36, -1.73, -1.73, -1.1, -0.61, 0.0, 0.0, 0.0, 0.58, 1.05, 1.16, 1.16, 1.16, 1.07, 1.19, 1.07, 1.16, 0.59, 0.59, 0.58, 1.14, 1.12, 1.12, 1.12, 0.61, 1.12, 2.4, 4.0, 4.6, 4.4, 4.0, 4.55, 4.55, 4.4, 4.11, 4.11, 4.11, 4.11, 3.6, 3.6, 3.35, 2.84, 3.16, 2.86, 2.86, 2.86, 2.86, 2.86, 3.15, 3.48, 3.48, 3.15, 2.86, 2.86, 2.86, 2.86, 3.43, 3.43, 3.72, 3.88, 4.27, 7.06, 7.06, 6.52, 6.52, 6.57, 7.12, 7.2, 5.82, 4.74, 4.74, 5.82, 6.23, 6.08, 6.04, 8.29, 10.59, 11.4, 8.84, 5.95, 5.38, 7.02, 8.93, 10.15, 10.19, 8.93, 6.79, 5.01, 3.49, 4.29, 4.54, 4.98, 5.81, 5.75, 5.81, 6.26, 7.56, 7.89, 7.89, -1.73, -1.73, -1.18, -1.1, -0.61, 0.0, 0.0, 0.0, 0.53, 0.53, 1.16, 1.16, 1.16, 1.16, 1.16, 1.16, 1.16, 0.53, 0.58, 0.58, 1.12, 1.12, 1.12, 0.61, 1.2, 1.67, 3.48, 4.27, 4.4, 4.27, 4.0, 4.0, 4.27, 3.88, 4.11, 4.11, 4.11, 3.7, 3.6, 3.07, 2.79, 2.84, 2.48, 2.22, 2.22, 2.86, 2.86, 2.86, 2.86, 2.86, 2.86, 2.86, 2.86, 3.48, 3.79, 3.79, 3.48, 3.43, 3.72, 4.27, 4.4, 6.52, 6.52, 6.13, 6.64, 6.13, 6.21, 5.49, 5.15, 5.82, 6.07, 6.7, 5.03, 4.56, 5.93, 9.8, 12.19, 12.13, 9.06, 6.83, 7.68, 9.3, 9.21, 8.9, 8.27, 5.98, 4.12, 4.29, 4.43, 4.89, 5.4, 5.81, 5.81, 5.36, 5.81, 6.71, 7.56, 7.56, -1.73, -1.73, -1.73, -1.1, -0.56, 0.0, 0.0, 0.0, 0.58, 0.53, 0.53, 1.16, 1.16, 1.16, 1.16, 1.16, 1.05, 1.14, 0.58, 0.58, 0.62, 1.12, 1.12, 1.12, 1.2, 1.12, 2.84, 3.73, 4.27, 4.27, 4.0, 4.0, 4.0, 3.88, 3.88, 4.11, 4.11, 4.11, 3.6, 3.07, 3.07, 2.53, 2.51, 2.23, 1.8, 2.23, 2.23, 2.23, 2.51, 2.51, 2.84, 2.86, 3.48, 3.79, 3.79, 4.11, 4.07, 4.0, 3.78, 4.27, 4.37, 4.55, 5.37, 4.81, 5.21, 5.72, 5.15, 5.15, 5.15, 5.46, 6.9, 6.44, 4.96, 3.27, 5.06, 8.59, 12.33, 13.91, 12.23, 10.15, 9.57, 8.93, 8.93, 8.27, 7.27, 6.39, 5.06, 4.74, 4.89, 4.89, 5.6, 6.02, 6.2, 6.71, 6.65, 7.45, 7.56, 7.56, -1.71, -1.71, -1.73, -1.18, -0.56, -0.56, 0.0, 0.0, 0.0, 0.58, 0.53, 0.53, 0.58, 1.14, 1.05, 1.05, 1.14, 1.14, 0.58, 0.58, 0.58, 0.57, 1.12, 1.12, 1.2, 1.2, 2.16, 3.49, 4.0, 4.0, 4.0, 3.78, 3.78, 3.43, 3.72, 3.72, 3.88, 4.11, 3.6, 3.6, 2.79, 2.79, 2.51, 2.76, 1.84, 1.6, 1.33, 1.84, 1.84, 2.51, 3.16, 3.15, 3.49, 3.49, 3.79, 4.11, 4.11, 4.07, 4.0, 4.0, 4.37, 4.65, 5.37, 5.15, 5.58, 5.72, 4.81, 5.49, 5.49, 5.82, 6.44, 6.44, 4.96, 3.8, 5.89, 6.83, 8.76, 10.83, 11.65, 11.64, 10.78, 9.53, 8.57, 7.94, 6.64, 5.69, 4.74, 3.63, 4.11, 4.89, 5.58, 7.12, 7.63, 8.06, 8.56, 9.11, 9.11, 8.36, -1.71, -1.71, -1.71, -1.18, -0.59, -0.56, 0.0, 0.0, 0.0, 0.0, 0.58, 0.58, 0.58, 0.58, 1.14, 1.14, 1.14, 0.58, 0.58, 0.58, 0.58, 0.57, 1.12, 1.12, 1.12, 0.61, 1.65, 2.84, 3.48, 4.0, 3.78, 3.78, 3.48, 3.43, 3.43, 3.72, 3.35, 3.72, 3.35, 3.35, 3.14, 3.14, 2.84, 3.63, 2.48, 1.8, 1.16, 1.88, 2.53, 2.84, 2.86, 3.2, 3.49, 3.49, 3.49, 4.11, 4.11, 4.41, 4.0, 4.0, 4.0, 4.65, 6.28, 5.21, 5.21, 5.72, 6.52, 6.18, 6.18, 6.18, 6.82, 7.07, 6.01, 6.53, 7.48, 6.04, 5.06, 5.93, 8.01, 10.23, 10.7, 9.73, 8.85, 7.64, 6.39, 5.37, 4.29, 2.76, 3.48, 4.54, 6.21, 7.35, 8.72, 9.24, 9.66, 9.4, 9.58, 9.11, -1.71, -1.71, -1.71, -1.09, -1.18, -0.56, 0.0, 0.0, 0.0, 0.0, 0.0, 0.57, 0.58, 0.58, 0.58, 1.14, 1.14, 0.58, 0.58, 0.58, 0.57, 0.57, 1.12, 1.12, 1.12, 0.56, 1.12, 2.18, 3.48, 4.0, 3.78, 3.48, 3.48, 3.48, 3.43, 3.43, 3.35, 3.35, 3.35, 3.35, 3.14, 3.14, 2.79, 2.84, 3.91, 2.86, 2.84, 2.79, 2.84, 2.86, 2.86, 3.12, 3.49, 3.49, 3.49, 3.79, 4.11, 4.41, 4.07, 4.37, 4.37, 4.29, 4.07, 5.72, 5.72, 6.52, 6.18, 6.18, 5.77, 6.82, 6.82, 6.82, 6.87, 8.15, 9.48, 7.36, 5.64, 5.76, 8.18, 9.66, 10.01, 9.43, 8.16, 7.31, 5.77, 4.16, 3.9, 3.63, 3.93, 4.98, 6.21, 7.76, 9.24, 9.66, 9.66, 9.92, 9.26, 9.58, -1.71, -1.71, -1.71, -1.16, -1.09, -0.59, -0.56, 0.0, 0.0, 0.0, 0.0, 0.57, 0.57, 0.57, 0.57, 0.57, 0.57, 0.57, 1.12, 1.12, 1.12, 1.12, 1.12, 1.23, 1.12, 0.56, 0.61, 1.84, 2.86, 3.48, 3.48, 3.48, 3.48, 3.48, 3.48, 3.43, 3.09, 3.35, 3.14, 3.14, 3.14, 2.84, 2.53, 2.53, 2.51, 3.91, 3.43, 3.43, 2.86, 3.15, 2.86, 3.49, 3.49, 3.78, 4.11, 4.11, 4.41, 4.65, 4.65, 4.07, 4.07, 4.07, 6.52, 5.72, 6.13, 6.52, 6.18, 6.28, 5.77, 6.44, 6.82, 6.82, 6.28, 7.21, 8.22, 9.17, 9.17, 9.56, 10.51, 10.34, 10.37, 9.43, 8.53, 7.33, 5.43, 4.01, 3.9, 5.49, 5.21, 6.16, 6.8, 8.3, 9.24, 9.66, 9.66, 9.49, 9.35, 9.35, -1.71, -1.71, -1.71, -1.16, -1.09, -0.55, -0.59, 0.0, 0.0, 0.0, 0.0, 0.0, 0.57, 0.57, 0.57, 0.57, 0.57, 0.57, 1.12, 1.12, 1.12, 1.12, 1.23, 1.12, 1.2, 0.56, 0.56, 1.14, 2.2, 3.48, 3.48, 3.48, 3.15, 3.15, 3.15, 2.86, 3.16, 2.84, 3.14, 2.79, 2.53, 2.23, 2.23, 2.23, 1.84, 2.23, 3.15, 3.15, 2.86, 2.86, 3.49, 3.49, 4.11, 4.11, 4.11, 4.37, 4.65, 4.37, 4.37, 4.41, 4.41, 4.41, 4.65, 6.52, 6.52, 6.28, 6.28, 6.28, 6.18, 6.79, 6.82, 6.8, 7.07, 6.39, 7.27, 8.22, 9.56, 12.22, 12.57, 12.5, 11.74, 11.11, 9.56, 8.32, 6.08, 3.63, 3.47, 5.37, 6.44, 7.42, 7.76, 8.82, 9.75, 10.18, 9.68, 9.35, 9.35, 9.35, -1.81, -1.81, -1.71, -1.16, -1.16, -0.55, -0.55, 0.0, 0.0, 0.0, 0.0, 0.0, 0.0, 0.56, 0.61, 0.57, 0.57, 0.57, 1.12, 1.12, 1.12, 1.12, 1.23, 1.12, 1.2, 0.59, 0.0, 0.57, 1.88, 2.86, 3.48, 3.48, 3.15, 3.15, 3.15, 3.15, 2.86, 3.16, 2.84, 3.14, 2.53, 2.23, 2.51, 2.51, 2.51, 2.23, 2.48, 2.86, 2.86, 3.49, 3.78, 4.11, 4.11, 4.37, 4.37, 4.37, 4.37, 4.37, 4.37, 4.37, 4.11, 4.65, 4.65, 6.9, 6.9, 6.63, 6.63, 6.63, 6.44, 6.79, 6.44, 6.8, 6.44, 6.32, 5.49, 6.53, 8.27, 10.92, 12.57, 12.84, 13.12, 12.4, 10.15, 8.94, 7.32, 4.81, 3.63, 5.69, 8.06, 8.63, 8.72, 9.75, 10.25, 9.49, 9.35, 9.39, 9.39, 9.39, -1.69, -1.69, -1.69, -1.16, -1.16, -0.58, -0.58, 0.0, 0.0, 0.0, 0.0, 0.0, 0.0, 0.0, 0.56, 0.61, 0.57, 0.57, 1.12, 1.12, 1.12, 1.12, 1.12, 1.12, 0.56, 0.59, 0.0, 0.56, 1.7, 2.44, 3.48, 3.48, 2.86, 2.86, 2.86, 2.86, 2.86, 2.86, 2.84, 2.84, 2.84, 2.51, 2.51, 2.23, 2.86, 2.86, 2.86, 3.2, 3.49, 3.49, 4.11, 4.11, 4.11, 4.43, 4.71, 4.37, 4.37, 4.71, 4.71, 4.71, 4.37, 4.37, 4.65, 5.47, 8.0, 7.44, 6.63, 6.44, 6.44, 6.82, 7.07, 7.35, 6.79, 6.32, 5.89, 5.89, 6.95, 8.22, 10.92, 12.62, 12.78, 12.37, 10.78, 9.84, 8.3, 6.08, 4.43, 6.18, 8.43, 8.95, 10.05, 10.43, 10.41, 9.68, 9.35, 9.39, 9.39, 9.39, -1.69, -1.69, -1.69, -1.14, -1.07, -0.57, -0.54, 0.0, 0.0, 0.0, 0.0, 0.0, 0.0, 0.0, 0.56, 0.56, 0.61, 0.61, 0.61, 0.61, 1.12, 1.12, 0.57, 0.61, 0.56, 0.56, 0.0, 0.56, 1.23, 2.4, 2.86, 2.86, 2.86, 2.86, 2.86, 2.86, 2.86, 2.86, 2.86, 2.86, 2.86, 2.86, 2.86, 2.86, 3.15, 2.86, 3.2, 3.49, 3.49, 3.49, 4.11, 4.11, 4.11, 4.43, 4.71, 4.37, 4.11, 4.43, 4.71, 4.71, 4.71, 4.71, 4.84, 5.6, 5.75, 6.98, 6.63, 6.18, 6.82, 6.82, 7.42, 7.44, 6.73, 5.89, 5.49, 6.24, 6.53, 7.18, 9.26, 10.98, 11.54, 11.7, 11.47, 10.18, 8.93, 6.68, 6.44, 7.35, 8.17, 10.05, 11.62, 11.27, 10.41, 9.79, 9.39, 9.39, 9.39, 9.39, -1.69, -1.69, -1.69, -1.14, -1.14, -0.57, -0.54, -0.58, 0.0, 0.0, 0.0, 0.0, 0.0, 0.0, 0.59, 0.56, 0.56, 0.56, 0.56, 0.56, 0.57, 0.57, 0.0, 0.0, 0.0, 0.56, 0.56, 0.56, 0.61, 1.84, 2.44, 2.86, 2.86, 2.86, 2.86, 2.44, 2.44, 2.44, 2.44, 2.86, 2.86, 2.86, 2.86, 2.86, 2.86, 2.86, 2.86, 3.49, 3.49, 3.49, 4.11, 4.11, 4.11, 4.43, 4.11, 4.11, 4.12, 4.12, 4.43, 4.71, 4.71, 4.71, 5.21, 5.6, 6.0, 6.63, 6.63, 7.6, 7.07, 7.42, 7.82, 7.81, 6.64, 6.53, 6.53, 6.53, 7.27, 7.59, 8.31, 8.64, 9.17, 9.7, 11.06, 10.15, 8.22, 7.33, 8.0, 8.4, 8.72, 9.9, 10.85, 11.37, 10.41, 9.35, 9.39, 8.94, 8.94, 8.94, -1.69, -1.69, -1.14, -1.14, -1.14, -0.57, -0.57, -0.54, 0.0, 0.0, 0.0, 0.0, 0.0, 0.0, 0.0, 0.56, 0.56, 0.56, 0.56, 0.56, 0.61, 0.0, 0.0, 0.0, 0.57, 0.61, 0.56, 0.59, 0.56, 1.12, 1.88, 2.86, 2.86, 2.86, 2.44, 2.44, 2.44, 2.44, 2.44, 2.44, 2.44, 2.86, 2.86, 2.86, 2.86, 2.86, 3.2, 3.49, 3.49, 3.49, 4.11, 4.11, 4.11, 4.11, 4.11, 3.83, 4.12, 4.12, 4.43, 4.71, 4.71, 4.71, 5.21, 5.47, 6.0, 7.6, 7.07, 7.6, 7.44, 7.2, 7.44, 7.76, 7.68, 7.27, 7.27, 8.03, 7.64, 7.97, 7.97, 7.27, 7.27, 9.17, 11.14, 10.48, 8.93, 8.67, 8.8, 8.55, 8.8, 10.1, 10.85, 11.11, 10.58, 9.39, 8.94, 8.9, 8.9, 8.9, -1.69, -1.69, -1.69, -1.14, -1.14, -0.57, -0.57, -0.54, 0.0, 0.0, 0.0, 0.0, 0.0, 0.0, 0.0, 0.0, 0.0, 0.0, 0.0, 0.0, 0.0, 0.0, 0.0, 0.0, 0.57, 0.56, 0.56, 0.59, 0.59, 0.56, 1.67, 2.2, 2.86, 2.86, 2.2, 2.2, 2.2, 2.2, 2.44, 2.44, 2.44, 2.86, 2.86, 2.86, 3.12, 3.49, 3.49, 3.49, 3.49, 3.49, 4.11, 4.11, 4.11, 4.11, 3.83, 3.83, 4.12, 4.12, 4.43, 4.71, 4.71, 4.71, 4.65, 5.21, 5.6, 6.8, 6.82, 7.2, 6.79, 7.2, 6.79, 7.44, 8.03, 8.38, 8.38, 8.68, 8.68, 7.97, 7.59, 6.24, 6.64, 9.4, 11.25, 11.88, 9.9, 9.52, 8.3, 8.63, 10.27, 11.21, 11.45, 11.33, 10.14, 9.39, 8.94, 8.9, 8.9, 8.9, -1.69, -1.69, -1.69, -1.14, -1.14, -1.14, -0.57, -0.54, 0.0, 0.0, 0.0, 0.0, 0.0, 0.0, 0.0, 0.0, 0.0, 0.0, 0.0, 0.0, 0.0, 0.0, 0.0, 0.57, 0.56, 0.56, 0.59, 0.55, 1.09, 1.18, 1.2, 1.84, 2.2, 2.44, 2.2, 2.2, 2.4, 2.2, 2.2, 2.2, 2.44, 2.86, 3.12, 3.12, 3.49, 3.49, 3.49, 3.49, 3.49, 3.78, 4.11, 3.83, 3.83, 3.83, 3.83, 3.83, 4.12, 4.12, 4.43, 4.71, 4.71, 4.71, 5.01, 5.21, 5.47, 7.2, 6.82, 7.82, 7.44, 7.82, 7.44, 7.15, 7.15, 8.03, 8.38, 9.04, 9.04, 7.97, 6.53, 6.32, 7.06, 8.79, 10.01, 10.51, 10.51, 8.59, 7.68, 8.8, 11.03, 12.22, 12.44, 11.23, 9.81, 8.94, 8.9, 8.45, 8.45, 8.45, -1.69, -2.37, -1.81, -1.69, -1.14, -1.14, -1.07, -0.54, -0.58, -0.58, 0.0, 0.0, 0.0, 0.0, 0.0, 0.0, 0.0, 0.0, -0.56, -0.56, 0.0, 0.0, 0.0, 0.56, 0.59, 0.55, 1.09, 1.09, 1.16, 1.16, 1.09, 1.65, 2.18, 2.2, 2.2, 2.2, 2.4, 2.4, 2.2, 2.2, 2.2, 2.84, 2.84, 2.84, 3.49, 3.49, 3.49, 3.49, 3.49, 3.78, 3.49, 3.49, 3.49, 3.83, 3.83, 3.83, 4.12, 4.12, 4.43, 4.43, 4.43, 4.71, 4.71, 5.21, 5.21, 6.0, 7.2, 7.42, 8.4, 8.05, 8.05, 7.81, 7.81, 8.43, 8.03, 8.68, 7.97, 6.83, 5.49, 5.69, 7.06, 7.68, 7.68, 7.78, 9.17, 8.22, 8.32, 9.6, 11.23, 11.95, 12.22, 11.71, 10.25, 8.94, 8.9, 8.45, 8.45, 8.45, -2.37, -2.37, -2.37, -1.71, -1.71, -1.16, -1.16, -1.16, -1.16, -0.58, -0.58, -0.55, -0.55, 0.0, 0.0, -0.58, -0.58, -0.55, -0.59, 0.0, 0.0, 0.0, 0.55, 0.55, 1.16, 1.16, 1.16, 1.16, 1.16, 1.16, 1.16, 1.18, 1.67, 1.88, 2.2, 1.73, 1.88, 1.88, 2.4, 2.2, 2.2, 2.84, 2.84, 2.84, 2.84, 3.22, 3.49, 3.49, 3.49, 3.22, 3.49, 3.49, 3.49, 3.83, 3.83, 3.83, 4.12, 4.12, 4.43, 4.43, 4.74, 4.43, 4.71, 4.71, 5.21, 6.0, 7.2, 7.76, 8.0, 8.05, 8.43, 8.63, 9.03, 9.05, 8.42, 8.68, 7.97, 6.53, 4.83, 5.77, 7.06, 7.35, 5.76, 6.84, 7.52, 7.59, 8.88, 10.52, 11.03, 11.45, 11.52, 11.23, 10.14, 8.94, 8.45, 8.44, 8.44, 8.44, -2.37, -2.37, -2.23, -2.23, -1.71, -1.71, -1.71, -1.16, -1.16, -1.16, -1.16, -0.55, -0.55, -0.58, -0.58, -0.58, 0.0, 0.0, 0.0, 0.0, 0.0, 0.58, 1.16, 1.16, 1.16, 1.14, 1.07, 1.16, 1.16, 1.16, 1.07, 1.16, 1.76, 1.84, 1.73, 1.73, 1.73, 1.7, 1.88, 2.4, 2.4, 2.4, 2.84, 2.84, 2.84, 2.84, 2.84, 2.84, 2.84, 3.22, 3.49, 3.49, 3.49, 3.83, 3.83, 3.83, 4.12, 4.12, 4.43, 4.74, 4.74, 4.74, 4.71, 4.71, 5.21, 5.6, 6.0, 6.51, 7.42, 7.82, 8.4, 8.63, 9.05, 8.68, 9.43, 8.68, 7.64, 6.64, 6.39, 7.07, 7.41, 6.95, 6.42, 6.7, 6.32, 7.32, 9.6, 11.03, 11.21, 11.21, 11.03, 10.49, 9.79, 8.94, 8.45, 8.44, 8.44, 8.44, -2.37, -2.37, -2.23, -2.23, -1.71, -1.71, -1.71, -1.71, -1.16, -1.16, -1.16, -1.09, -0.58, -0.58, -0.58, 0.0, 0.0, 0.0, 0.0, 0.58, 0.58, 1.07, 1.14, 1.16, 1.14, 1.14, 1.14, 0.54, 0.58, 1.16, 1.16, 1.16, 1.09, 1.65, 1.7, 1.73, 1.73, 1.7, 1.7, 1.7, 1.88, 2.4, 2.4, 2.18, 2.82, 3.08, 2.84, 2.84, 2.84, 3.08, 3.49, 3.49, 3.49, 3.49, 3.76, 3.76, 4.12, 4.12, 4.43, 4.74, 4.74, 4.74, 4.74, 4.71, 5.21, 5.75, 6.0, 6.51, 7.42, 7.42, 8.0, 8.05, 8.42, 8.68, 8.68, 8.06, 7.68, 7.41, 7.69, 8.06, 8.06, 7.35, 8.93, 9.96, 8.43, 8.72, 10.18, 11.37, 11.21, 10.94, 11.03, 10.02, 9.35, 8.49, 8.44, 7.85, 7.85, 7.85, -2.21, -2.21, -2.37, -2.23, -1.71, -1.71, -1.71, -1.16, -1.16, -1.16, -1.16, -1.16, -0.58, -0.58, -0.58, 0.0, 0.0, 0.0, 0.0, 0.54, 0.57, 0.57, 0.57, 0.57, 0.57, 0.57, 0.57, 0.57, 0.58, 0.55, 1.16, 1.16, 1.16, 1.1, 1.67, 1.55, 1.19, 1.07, 1.16, 1.7, 1.7, 1.7, 1.7, 2.36, 2.36, 2.36, 2.82, 2.82, 3.08, 3.08, 3.49, 3.49, 3.76, 3.76, 3.47, 3.47, 3.84, 4.12, 4.74, 4.74, 4.74, 4.74, 4.74, 5.05, 4.94, 5.21, 5.75, 6.28, 6.8, 7.82, 8.0, 8.43, 8.42, 9.04, 9.04, 7.06, 6.11, 6.39, 7.69, 8.06, 7.68, 8.68, 10.28, 12.26, 10.66, 10.18, 10.32, 11.21, 11.34, 11.34, 10.52, 9.58, 8.46, 8.05, 7.85, 8.29, 8.29, 8.29, -1.78, -1.78, -1.69, -1.69, -1.07, -1.16, -1.07, -1.14, -1.14, -1.07, -1.16, -0.58, -0.58, -0.57, -0.57, 0.0, 0.0, 0.0, 0.0, 0.57, 0.57, 0.57, 0.57, 0.57, 0.57, 0.57, 0.57, 0.57, 0.58, 0.55, 0.55, 1.16, 1.16, 1.09, 1.12, 1.16, 1.19, 1.19, 1.07, 1.16, 1.16, 1.84, 1.67, 1.84, 2.36, 2.36, 2.82, 2.82, 2.82, 2.82, 2.82, 3.22, 3.47, 3.47, 3.47, 3.47, 3.84, 4.12, 4.45, 4.74, 4.74, 4.74, 4.74, 4.74, 5.29, 5.21, 5.75, 6.28, 6.8, 7.82, 8.4, 9.03, 9.05, 9.04, 8.38, 7.02, 6.44, 6.44, 7.44, 8.06, 8.67, 9.05, 10.29, 11.87, 12.26, 11.2, 11.03, 11.21, 11.04, 11.04, 10.68, 9.58, 8.46, 8.05, 7.85, 8.06, 8.06, 8.06, -1.12, -1.12, -1.12, -1.14, -1.14, -1.14, -1.14, -1.14, -1.14, -0.57, -0.57, -0.57, -0.57, -0.57, 0.0, 0.0, 0.0, 0.0, 0.0, 0.0, 0.0, 0.57, 0.56, 0.57, 0.57, 0.57, 1.14, 1.14, 0.54, 0.58, 0.55, 0.55, 0.58, 0.55, 1.1, 1.14, 1.07, 1.19, 1.19, 1.16, 1.16, 1.67, 1.67, 1.8, 2.32, 2.32, 2.8, 3.04, 3.04, 2.82, 2.82, 3.04, 3.47, 3.47, 3.47, 3.47, 4.12, 4.12, 4.12, 4.45, 4.45, 4.74, 4.74, 4.74, 5.29, 4.94, 5.58, 5.75, 6.28, 8.0, 8.4, 9.03, 9.05, 9.04, 8.38, 8.03, 7.69, 7.44, 7.44, 8.42, 8.67, 9.04, 9.66, 11.25, 12.26, 12.03, 11.5, 11.47, 11.6, 11.12, 10.4, 9.54, 8.05, 7.6, 7.85, 8.06, 8.06, 8.06, -1.12, -1.12, -1.12, -1.12, -1.12, -0.56, -0.56, -0.56, -0.56, -0.57, -0.57, -0.57, -0.56, 0.0, 0.0, 0.0, 0.0, 0.0, 0.0, 0.0, 0.0, 0.57, 0.56, 0.56, 0.57, 0.57, 0.61, 1.14, 0.57, 0.58, 0.55, 0.55, 0.58, 0.55, 0.56, 0.57, 1.16, 1.07, 1.19, 0.54, 1.16, 1.14, 1.8, 1.8, 2.32, 2.32, 2.32, 2.8, 2.8, 2.8, 2.8, 3.04, 3.47, 3.47, 3.47, 3.72, 4.12, 4.12, 4.12, 4.45, 4.45, 4.45, 4.74, 4.74, 4.74, 5.29, 5.29, 5.49, 6.28, 6.8, 7.71, 9.03, 9.05, 8.03, 8.03, 8.03, 8.42, 8.06, 8.05, 8.06, 8.67, 9.05, 10.04, 10.98, 11.6, 11.66, 11.6, 11.34, 11.6, 11.12, 10.94, 9.54, 7.6, 7.54, 8.06, 7.76, 7.76, 7.76, -1.12, -1.12, -1.12, -1.12, -0.56, -0.56, -0.56, -0.56, 0.0, 0.0, 0.0, 0.0, 0.0, 0.0, 0.0, 0.0, 0.0, 0.0, 0.0, 0.0, 0.56, 0.56, 0.56, 0.56, 0.57, 0.57, 0.57, 0.61, 0.57, 0.54, 0.58, 0.58, 0.58, 0.58, 0.59, 0.57, 1.14, 1.16, 1.16, 0.59, 0.59, 1.14, 1.14, 1.8, 1.8, 2.32, 2.32, 2.49, 2.49, 2.32, 2.32, 3.04, 3.04, 3.47, 3.47, 3.45, 3.45, 4.12, 4.12, 4.12, 4.45, 4.45, 4.74, 4.74, 4.74, 5.29, 5.29, 5.86, 6.03, 6.8, 7.71, 9.03, 9.05, 8.49, 7.76, 8.42, 8.67, 8.43, 8.05, 8.95, 9.03, 9.27, 9.67, 11.03, 11.9, 12.27, 11.64, 11.6, 11.44, 11.12, 10.48, 9.33, 7.6, 6.98, 6.94, 7.03, 7.03, 7.03, -1.12, -1.12, -1.12, -0.56, -0.56, -0.56, -0.56, -0.56, 0.0, 0.0, 0.0, 0.0, 0.0, 0.0, 0.0, 0.0, 0.0, 0.0, 0.0, 0.0, 0.0, 0.0, 0.0, 0.56, 0.57, 0.0, 0.57, 0.57, 0.57, 0.57, 0.54, 0.54, 0.54, 0.58, 0.55, 1.1, 1.2, 1.12, 1.14, 1.14, 0.58, 1.14, 1.23, 1.12, 1.65, 1.65, 2.14, 2.29, 2.29, 2.29, 2.8, 2.8, 3.04, 3.22, 3.45, 3.45, 3.45, 3.85, 4.12, 4.12, 4.12, 4.12, 4.45, 4.74, 4.74, 5.01, 5.29, 5.86, 6.03, 6.8, 7.71, 8.15, 8.27, 9.3, 8.06, 9.03, 9.03, 8.63, 8.95, 8.55, 8.95, 9.03, 9.65, 10.66, 11.64, 12.65, 12.27, 12.23, 11.64, 11.64, 11.02, 9.66, 7.6, 6.51, 6.8, 7.2, 7.2, 7.2, -1.12, -1.12, -1.12, -0.56, -0.56, -0.56, -0.56, -0.56, 0.0, 0.0, 0.0, 0.0, 0.0, 0.0, 0.0, 0.0, 0.0, 0.0, 0.0, 0.0, 0.0, 0.0, 0.0, 0.56, 0.57, 0.0, 0.57, 0.57, 0.57, 0.57, 0.54, 0.54, 0.54, 0.58, 0.55, 1.1, 1.2, 1.12, 1.14, 1.14, 0.58, 1.14, 1.23, 1.12, 1.65, 1.65, 2.14, 2.29, 2.29, 2.29, 2.8, 2.8, 3.04, 3.22, 3.45, 3.45, 3.45, 3.85, 4.12, 4.12, 4.12, 4.12, 4.45, 4.74, 4.74, 5.01, 5.29, 5.86, 6.03, 6.8, 7.71, 8.15, 8.27, 9.3, 8.06, 9.03, 8.63, 8.63, 8.95, 8.55, 8.95, 8.95, 9.42, 10.04, 11.28, 12.27, 13.25, 12.86, 11.88, 11.28, 10.66, 9.66, 8.05, 6.88, 6.6, 6.79, 6.79, 6.79]}]